Wetterdaten: Samstag, 27.07.2019
Datum Zeit Temp. Aussen Temp. o. S. +5cm Feuchte Auss Luftdruck Regen Sonnenschein Regendauer Solar Windben Empfang
27.07.2019 00:00 25,9 C 24,4 C 24,4 C 74 % 1005,3 hPa 0,0 l/m 0 min 0 min 0 W/m 6,4 km/h (2 Bft) 97,87 %
27.07.2019 00:02 25,8 C 24,4 C 24,4 C 74 % 1005,3 hPa 0,0 l/m 0 min 0 min 0 W/m 6,4 km/h (2 Bft) 100,00 %
27.07.2019 00:04 25,8 C 24,4 C 24,4 C 74 % 1005,3 hPa 0,0 l/m 0 min 0 min 0 W/m 6,4 km/h (2 Bft) 100,00 %
27.07.2019 00:08 25,8 C 24,4 C 24,4 C 74 % 1005,3 hPa 0,0 l/m 0 min 0 min 0 W/m 6,4 km/h (2 Bft) 100,00 %
27.07.2019 00:10 25,7 C 24,4 C 24,4 C 74 % 1005,2 hPa 0,0 l/m 0 min 0 min 0 W/m 6,4 km/h (2 Bft) 100,00 %
27.07.2019 00:12 25,7 C 24,4 C 24,4 C 74 % 1005,2 hPa 0,0 l/m 0 min 0 min 0 W/m 6,4 km/h (2 Bft) 100,00 %
27.07.2019 00:14 25,7 C 23,9 C 24,4 C 75 % 1005,2 hPa 0,0 l/m 0 min 0 min 0 W/m 3,2 km/h (1 Bft) 100,00 %
27.07.2019 00:16 25,7 C 23,9 C 23,9 C 75 % 1005,2 hPa 0,0 l/m 0 min 0 min 0 W/m 3,2 km/h (1 Bft) 100,00 %
27.07.2019 00:18 25,6 C 23,9 C 23,9 C 75 % 1005,1 hPa 0,0 l/m 0 min 0 min 0 W/m 3,2 km/h (1 Bft) 100,00 %
27.07.2019 00:20 25,6 C 23,9 C 23,9 C 75 % 1005,1 hPa 0,0 l/m 0 min 0 min 0 W/m 3,2 km/h (1 Bft) 100,00 %
27.07.2019 00:22 25,6 C 23,9 C 23,9 C 75 % 1005,1 hPa 0,0 l/m 0 min 0 min 0 W/m 0,0 km/h (0 Bft) 100,00 %
27.07.2019 00:24 25,6 C 23,9 C 23,9 C 75 % 1005,1 hPa 0,0 l/m 0 min 0 min 0 W/m 0,0 km/h (0 Bft) 100,00 %
27.07.2019 00:26 25,6 C 23,9 C 23,9 C 75 % 1005,0 hPa 0,0 l/m 0 min 0 min 0 W/m 0,0 km/h (0 Bft) 100,00 %
27.07.2019 00:28 25,5 C 23,9 C 23,9 C 75 % 1005,0 hPa 0,0 l/m 0 min 0 min 0 W/m 3,2 km/h (1 Bft) 100,00 %
27.07.2019 00:30 25,5 C 23,9 C 23,9 C 75 % 1005,1 hPa 0,0 l/m 0 min 0 min 0 W/m 3,2 km/h (1 Bft) 100,00 %
27.07.2019 00:32 25,5 C 23,9 C 23,9 C 75 % 1005,0 hPa 0,0 l/m 0 min 0 min 0 W/m 3,2 km/h (1 Bft) 97,83 %
27.07.2019 00:34 25,4 C 23,9 C 23,9 C 75 % 1005,0 hPa 0,0 l/m 0 min 0 min 0 W/m 6,4 km/h (2 Bft) 97,87 %
27.07.2019 00:36 25,4 C 23,9 C 23,9 C 75 % 1005,0 hPa 0,0 l/m 0 min 0 min 0 W/m 6,4 km/h (2 Bft) 97,87 %
27.07.2019 00:38 25,4 C 23,9 C 23,9 C 75 % 1004,9 hPa 0,0 l/m 0 min 0 min 0 W/m 0,0 km/h (0 Bft) 97,87 %
27.07.2019 00:40 25,4 C 23,9 C 23,9 C 75 % 1005,0 hPa 0,0 l/m 0 min 0 min 0 W/m 0,0 km/h (0 Bft) 97,87 %
27.07.2019 00:42 25,4 C 23,9 C 23,9 C 76 % 1005,0 hPa 0,0 l/m 0 min 0 min 0 W/m 0,0 km/h (0 Bft) 95,74 %
27.07.2019 00:44 25,3 C 23,9 C 23,9 C 76 % 1005,0 hPa 0,0 l/m 0 min 0 min 0 W/m 0,0 km/h (0 Bft) 97,83 %
27.07.2019 00:46 25,3 C 23,9 C 23,9 C 76 % 1005,0 hPa 0,0 l/m 0 min 0 min 0 W/m 6,4 km/h (2 Bft) 95,74 %
27.07.2019 00:48 25,3 C 23,9 C 23,9 C 76 % 1005,0 hPa 0,0 l/m 0 min 0 min 0 W/m 3,2 km/h (1 Bft) 95,74 %
27.07.2019 00:50 25,3 C 23,9 C 23,9 C 76 % 1005,0 hPa 0,0 l/m 0 min 0 min 0 W/m 6,4 km/h (2 Bft) 95,74 %
27.07.2019 00:52 25,2 C 23,9 C 23,9 C 76 % 1005,0 hPa 0,0 l/m 0 min 0 min 0 W/m 3,2 km/h (1 Bft) 95,74 %
27.07.2019 00:54 25,2 C 23,9 C 23,9 C 76 % 1004,9 hPa 0,0 l/m 0 min 0 min 0 W/m 3,2 km/h (1 Bft) 93,62 %
27.07.2019 00:56 25,2 C 23,3 C 23,9 C 76 % 1004,9 hPa 0,0 l/m 0 min 0 min 0 W/m 3,2 km/h (1 Bft) 95,65 %
27.07.2019 00:58 25,1 C 23,3 C 23,9 C 76 % 1004,9 hPa 0,0 l/m 0 min 0 min 0 W/m 3,2 km/h (1 Bft) 95,74 %
27.07.2019 01:00 25,1 C 23,3 C 23,3 C 77 % 1005,0 hPa 0,0 l/m 0 min 0 min 0 W/m 3,2 km/h (1 Bft) 95,74 %
27.07.2019 01:02 25,1 C 23,3 C 23,9 C 77 % 1005,0 hPa 0,0 l/m 0 min 0 min 0 W/m 6,4 km/h (2 Bft) 95,74 %
27.07.2019 01:04 25,1 C 23,3 C 23,3 C 77 % 1005,0 hPa 0,0 l/m 0 min 0 min 0 W/m 3,2 km/h (1 Bft) 95,74 %
27.07.2019 01:08 25,1 C 23,3 C 23,3 C 78 % 1005,0 hPa 0,0 l/m 0 min 0 min 0 W/m 9,7 km/h (2 Bft) 95,70 %
27.07.2019 01:10 25,0 C 23,3 C 23,3 C 78 % 1005,1 hPa 0,0 l/m 0 min 0 min 0 W/m 9,7 km/h (2 Bft) 95,74 %
27.07.2019 01:12 24,9 C 23,3 C 23,3 C 78 % 1005,1 hPa 0,0 l/m 0 min 0 min 0 W/m 9,7 km/h (2 Bft) 95,74 %
27.07.2019 01:14 24,9 C 23,3 C 23,3 C 78 % 1005,0 hPa 0,0 l/m 0 min 0 min 0 W/m 16,1 km/h (3 Bft) 95,74 %
27.07.2019 01:16 24,9 C 23,3 C 23,3 C 78 % 1005,0 hPa 0,0 l/m 0 min 0 min 0 W/m 6,4 km/h (2 Bft) 95,74 %
27.07.2019 01:18 24,9 C 23,3 C 23,3 C 78 % 1005,0 hPa 0,0 l/m 0 min 0 min 0 W/m 6,4 km/h (2 Bft) 95,65 %
27.07.2019 01:20 24,8 C 23,3 C 23,3 C 79 % 1005,0 hPa 0,0 l/m 0 min 0 min 0 W/m 12,9 km/h (3 Bft) 93,62 %
27.07.2019 01:22 24,8 C 22,8 C 23,3 C 79 % 1004,9 hPa 0,0 l/m 0 min 0 min 0 W/m 3,2 km/h (1 Bft) 95,74 %
27.07.2019 01:24 24,8 C 22,8 C 23,3 C 79 % 1004,9 hPa 0,0 l/m 0 min 0 min 0 W/m 3,2 km/h (1 Bft) 93,62 %
27.07.2019 01:26 24,7 C 22,8 C 23,3 C 80 % 1004,8 hPa 0,0 l/m 0 min 0 min 0 W/m 6,4 km/h (2 Bft) 97,87 %
27.07.2019 01:28 24,7 C 22,8 C 23,3 C 80 % 1004,8 hPa 0,0 l/m 0 min 0 min 0 W/m 6,4 km/h (2 Bft) 97,87 %
27.07.2019 01:30 24,7 C 22,8 C 23,3 C 80 % 1004,8 hPa 0,0 l/m 0 min 0 min 0 W/m 6,4 km/h (2 Bft) 97,83 %
27.07.2019 01:32 24,6 C 22,8 C 23,3 C 81 % 1004,8 hPa 0,0 l/m 0 min 0 min 0 W/m 3,2 km/h (1 Bft) 97,87 %
27.07.2019 01:34 24,6 C 22,8 C 23,3 C 81 % 1004,9 hPa 0,0 l/m 0 min 0 min 0 W/m 0,0 km/h (0 Bft) 100,00 %
27.07.2019 01:36 24,6 C 22,8 C 22,8 C 81 % 1004,9 hPa 0,0 l/m 0 min 0 min 0 W/m 3,2 km/h (1 Bft) 97,87 %
27.07.2019 01:38 24,5 C 22,8 C 22,8 C 81 % 1004,9 hPa 0,0 l/m 0 min 0 min 0 W/m 16,1 km/h (3 Bft) 100,00 %
27.07.2019 01:40 24,5 C 22,8 C 22,8 C 81 % 1004,8 hPa 0,0 l/m 0 min 0 min 0 W/m 16,1 km/h (3 Bft) 100,00 %
27.07.2019 01:42 24,4 C 22,8 C 22,8 C 81 % 1004,8 hPa 0,0 l/m 0 min 0 min 0 W/m 6,4 km/h (2 Bft) 100,00 %
27.07.2019 01:44 24,4 C 22,8 C 22,8 C 81 % 1004,7 hPa 0,0 l/m 0 min 0 min 0 W/m 6,4 km/h (2 Bft) 95,74 %
27.07.2019 01:46 24,3 C 22,2 C 22,8 C 81 % 1004,8 hPa 0,0 l/m 0 min 0 min 0 W/m 0,0 km/h (0 Bft) 100,00 %
27.07.2019 01:48 24,3 C 22,2 C 22,8 C 82 % 1004,8 hPa 0,0 l/m 0 min 0 min 0 W/m 0,0 km/h (0 Bft) 97,87 %
27.07.2019 01:50 24,3 C 22,2 C 22,2 C 82 % 1004,7 hPa 0,0 l/m 0 min 0 min 0 W/m 3,2 km/h (1 Bft) 97,87 %
27.07.2019 01:52 24,3 C 22,2 C 22,2 C 82 % 1004,7 hPa 0,0 l/m 0 min 0 min 0 W/m 6,4 km/h (2 Bft) 97,87 %
27.07.2019 01:54 24,2 C 22,2 C 22,8 C 82 % 1004,7 hPa 0,0 l/m 0 min 0 min 0 W/m 3,2 km/h (1 Bft) 97,83 %
27.07.2019 01:56 24,2 C 22,2 C 22,8 C 82 % 1004,8 hPa 0,0 l/m 0 min 0 min 0 W/m 3,2 km/h (1 Bft) 97,87 %
27.07.2019 01:58 24,2 C 22,2 C 22,2 C 82 % 1004,8 hPa 0,0 l/m 0 min 0 min 0 W/m 0,0 km/h (0 Bft) 97,87 %
27.07.2019 02:00 24,1 C 22,2 C 22,2 C 82 % 1004,7 hPa 0,0 l/m 0 min 0 min 0 W/m 0,0 km/h (0 Bft) 97,87 %
27.07.2019 02:02 24,1 C 22,2 C 22,2 C 82 % 1004,6 hPa 0,0 l/m 0 min 0 min 0 W/m 6,4 km/h (2 Bft) 97,87 %
27.07.2019 02:04 24,1 C 22,2 C 22,2 C 82 % 1004,6 hPa 0,0 l/m 0 min 0 min 0 W/m 6,4 km/h (2 Bft) 97,87 %
27.07.2019 02:08 23,9 C 22,2 C 22,2 C 83 % 1004,5 hPa 0,0 l/m 0 min 0 min 0 W/m 3,2 km/h (1 Bft) 97,85 %
27.07.2019 02:10 23,9 C 22,2 C 22,2 C 83 % 1004,5 hPa 0,0 l/m 0 min 0 min 0 W/m 0,0 km/h (0 Bft) 97,87 %
27.07.2019 02:12 23,9 C 22,2 C 22,2 C 83 % 1004,5 hPa 0,0 l/m 0 min 0 min 0 W/m 0,0 km/h (0 Bft) 97,87 %
27.07.2019 02:14 23,8 C 21,7 C 22,2 C 83 % 1004,4 hPa 0,0 l/m 0 min 0 min 0 W/m 0,0 km/h (0 Bft) 97,87 %
27.07.2019 02:16 23,8 C 22,2 C 22,2 C 83 % 1004,4 hPa 0,0 l/m 0 min 0 min 0 W/m 0,0 km/h (0 Bft) 97,87 %
27.07.2019 02:18 23,8 C 21,7 C 22,2 C 83 % 1004,5 hPa 0,0 l/m 0 min 0 min 0 W/m 3,2 km/h (1 Bft) 97,83 %
27.07.2019 02:20 23,8 C 21,7 C 22,2 C 83 % 1004,5 hPa 0,0 l/m 0 min 0 min 0 W/m 0,0 km/h (0 Bft) 97,87 %
27.07.2019 02:22 23,7 C 21,7 C 21,7 C 83 % 1004,5 hPa 0,0 l/m 0 min 0 min 0 W/m 0,0 km/h (0 Bft) 97,87 %
27.07.2019 02:24 23,7 C 22,2 C 22,2 C 83 % 1004,5 hPa 0,0 l/m 0 min 0 min 0 W/m 3,2 km/h (1 Bft) 97,87 %
27.07.2019 02:26 23,7 C 22,2 C 22,2 C 83 % 1004,4 hPa 0,0 l/m 0 min 0 min 0 W/m 3,2 km/h (1 Bft) 97,87 %
27.07.2019 02:28 23,6 C 22,2 C 22,2 C 83 % 1004,4 hPa 0,0 l/m 0 min 0 min 0 W/m 0,0 km/h (0 Bft) 97,83 %
27.07.2019 02:30 23,6 C 22,2 C 22,2 C 83 % 1004,4 hPa 0,0 l/m 0 min 0 min 0 W/m 0,0 km/h (0 Bft) 95,74 %
27.07.2019 02:32 23,6 C 22,2 C 22,2 C 83 % 1004,4 hPa 0,0 l/m 0 min 0 min 0 W/m 3,2 km/h (1 Bft) 97,87 %
27.07.2019 02:34 23,6 C 21,7 C 21,7 C 83 % 1004,5 hPa 0,0 l/m 0 min 0 min 0 W/m 0,0 km/h (0 Bft) 97,87 %
27.07.2019 02:36 23,6 C 21,7 C 22,2 C 83 % 1004,5 hPa 0,0 l/m 0 min 0 min 0 W/m 0,0 km/h (0 Bft) 95,74 %
27.07.2019 02:38 23,5 C 21,7 C 22,2 C 83 % 1004,5 hPa 0,0 l/m 0 min 0 min 0 W/m 0,0 km/h (0 Bft) 97,87 %
27.07.2019 02:40 23,5 C 22,2 C 22,2 C 83 % 1004,4 hPa 0,0 l/m 0 min 0 min 0 W/m 0,0 km/h (0 Bft) 97,83 %
27.07.2019 02:42 23,4 C 21,7 C 21,7 C 84 % 1004,4 hPa 0,0 l/m 0 min 0 min 0 W/m 0,0 km/h (0 Bft) 97,87 %
27.07.2019 02:44 23,4 C 21,7 C 21,7 C 84 % 1004,4 hPa 0,0 l/m 0 min 0 min 0 W/m 0,0 km/h (0 Bft) 97,87 %
27.07.2019 02:46 23,4 C 21,7 C 21,7 C 84 % 1004,3 hPa 0,0 l/m 0 min 0 min 0 W/m 0,0 km/h (0 Bft) 97,87 %
27.07.2019 02:48 23,4 C 21,7 C 21,7 C 84 % 1004,4 hPa 0,0 l/m 0 min 0 min 0 W/m 0,0 km/h (0 Bft) 97,87 %
27.07.2019 02:50 23,3 C 21,7 C 21,7 C 84 % 1004,4 hPa 0,0 l/m 0 min 0 min 0 W/m 0,0 km/h (0 Bft) 97,87 %
27.07.2019 02:52 23,3 C 21,7 C 21,7 C 84 % 1004,4 hPa 0,0 l/m 0 min 0 min 0 W/m 0,0 km/h (0 Bft) 100,00 %
27.07.2019 02:54 23,3 C 21,7 C 21,7 C 84 % 1004,3 hPa 0,0 l/m 0 min 0 min 0 W/m 0,0 km/h (0 Bft) 100,00 %
27.07.2019 02:56 23,3 C 21,7 C 21,7 C 84 % 1004,3 hPa 0,0 l/m 0 min 0 min 0 W/m 3,2 km/h (1 Bft) 100,00 %
27.07.2019 02:58 23,3 C 21,7 C 21,7 C 83 % 1004,3 hPa 0,0 l/m 0 min 0 min 0 W/m 3,2 km/h (1 Bft) 97,87 %
27.07.2019 03:00 23,2 C 21,7 C 21,7 C 83 % 1004,3 hPa 0,0 l/m 0 min 0 min 0 W/m 0,0 km/h (0 Bft) 100,00 %
27.07.2019 03:02 23,2 C 21,7 C 21,7 C 83 % 1004,3 hPa 0,0 l/m 0 min 0 min 0 W/m 0,0 km/h (0 Bft) 100,00 %
27.07.2019 03:04 23,2 C 21,1 C 21,7 C 83 % 1004,3 hPa 0,0 l/m 0 min 0 min 0 W/m 0,0 km/h (0 Bft) 97,83 %
27.07.2019 03:08 23,2 C 21,1 C 21,7 C 83 % 1004,3 hPa 0,0 l/m 0 min 0 min 0 W/m 0,0 km/h (0 Bft) 100,00 %
27.07.2019 03:10 23,1 C 21,1 C 21,7 C 83 % 1004,3 hPa 0,0 l/m 0 min 0 min 0 W/m 3,2 km/h (1 Bft) 100,00 %
27.07.2019 03:12 23,1 C 21,1 C 21,7 C 83 % 1004,3 hPa 0,0 l/m 0 min 0 min 0 W/m 0,0 km/h (0 Bft) 100,00 %
27.07.2019 03:14 23,1 C 21,1 C 21,7 C 83 % 1004,2 hPa 0,0 l/m 0 min 0 min 0 W/m 0,0 km/h (0 Bft) 100,00 %
27.07.2019 03:16 23,1 C 21,1 C 21,7 C 83 % 1004,2 hPa 0,0 l/m 0 min 0 min 0 W/m 0,0 km/h (0 Bft) 100,00 %
27.07.2019 03:18 23,0 C 21,1 C 21,7 C 83 % 1004,2 hPa 0,0 l/m 0 min 0 min 0 W/m 0,0 km/h (0 Bft) 100,00 %
27.07.2019 03:20 23,0 C 21,1 C 21,1 C 83 % 1004,3 hPa 0,0 l/m 0 min 0 min 0 W/m 0,0 km/h (0 Bft) 100,00 %
27.07.2019 03:22 22,9 C 21,1 C 21,1 C 83 % 1004,2 hPa 0,0 l/m 0 min 0 min 0 W/m 0,0 km/h (0 Bft) 100,00 %
27.07.2019 03:24 22,9 C 21,1 C 21,1 C 83 % 1004,2 hPa 0,0 l/m 0 min 0 min 0 W/m 0,0 km/h (0 Bft) 100,00 %
27.07.2019 03:26 22,9 C 21,7 C 21,7 C 83 % 1004,1 hPa 0,0 l/m 0 min 0 min 0 W/m 0,0 km/h (0 Bft) 97,87 %
27.07.2019 03:28 22,9 C 21,7 C 21,7 C 83 % 1004,1 hPa 0,0 l/m 0 min 0 min 0 W/m 0,0 km/h (0 Bft) 97,83 %
27.07.2019 03:30 22,8 C 21,7 C 21,7 C 83 % 1004,1 hPa 0,0 l/m 0 min 0 min 0 W/m 0,0 km/h (0 Bft) 95,74 %
27.07.2019 03:32 22,8 C 21,7 C 21,7 C 83 % 1004,1 hPa 0,0 l/m 0 min 0 min 0 W/m 0,0 km/h (0 Bft) 97,87 %
27.07.2019 03:34 22,8 C 21,7 C 21,7 C 83 % 1004,1 hPa 0,0 l/m 0 min 0 min 0 W/m 0,0 km/h (0 Bft) 97,87 %
27.07.2019 03:36 22,8 C 21,7 C 21,7 C 83 % 1004,1 hPa 0,0 l/m 0 min 0 min 0 W/m 0,0 km/h (0 Bft) 97,87 %
27.07.2019 03:38 22,7 C 21,1 C 21,7 C 83 % 1004,1 hPa 0,0 l/m 0 min 0 min 0 W/m 0,0 km/h (0 Bft) 97,83 %
27.07.2019 03:40 22,7 C 21,1 C 21,7 C 83 % 1004,1 hPa 0,0 l/m 0 min 0 min 0 W/m 0,0 km/h (0 Bft) 97,87 %
27.07.2019 03:42 22,7 C 21,1 C 21,7 C 83 % 1004,0 hPa 0,0 l/m 0 min 0 min 0 W/m 3,2 km/h (1 Bft) 97,87 %
27.07.2019 03:44 22,7 C 21,1 C 21,1 C 83 % 1004,0 hPa 0,0 l/m 0 min 0 min 0 W/m 3,2 km/h (1 Bft) 97,87 %
27.07.2019 03:46 22,7 C 21,1 C 21,1 C 83 % 1003,9 hPa 0,0 l/m 0 min 0 min 0 W/m 0,0 km/h (0 Bft) 97,87 %
27.07.2019 03:48 22,7 C 21,1 C 21,1 C 83 % 1003,9 hPa 0,0 l/m 0 min 0 min 0 W/m 0,0 km/h (0 Bft) 95,74 %
27.07.2019 03:50 22,6 C 21,1 C 21,1 C 83 % 1003,9 hPa 0,0 l/m 0 min 0 min 0 W/m 3,2 km/h (1 Bft) 91,30 %
27.07.2019 03:52 22,6 C 21,1 C 21,1 C 83 % 1003,9 hPa 0,0 l/m 0 min 0 min 0 W/m 3,2 km/h (1 Bft) 95,74 %
27.07.2019 03:54 22,6 C 21,1 C 21,1 C 83 % 1003,8 hPa 0,0 l/m 0 min 0 min 0 W/m 0,0 km/h (0 Bft) 95,74 %
27.07.2019 03:56 22,6 C 21,1 C 21,1 C 83 % 1003,8 hPa 0,0 l/m 0 min 0 min 0 W/m 0,0 km/h (0 Bft) 95,74 %
27.07.2019 03:58 22,6 C 21,1 C 21,1 C 83 % 1003,8 hPa 0,0 l/m 0 min 0 min 0 W/m 0,0 km/h (0 Bft) 93,62 %
27.07.2019 04:00 22,6 C 21,1 C 21,1 C 83 % 1003,8 hPa 0,0 l/m 0 min 0 min 0 W/m 0,0 km/h (0 Bft) 97,87 %
27.07.2019 04:02 22,6 C 21,1 C 21,1 C 83 % 1003,9 hPa 0,0 l/m 0 min 0 min 0 W/m 0,0 km/h (0 Bft) 96,43 %
27.07.2019 04:04 22,6 C 21,1 C 21,1 C 83 % 1003,9 hPa 0,0 l/m 0 min 0 min 0 W/m 0,0 km/h (0 Bft) 95,74 %
27.07.2019 04:08 22,5 C 21,1 C 21,1 C 83 % 1003,8 hPa 0,0 l/m 0 min 0 min 0 W/m 0,0 km/h (0 Bft) 94,68 %
27.07.2019 04:10 22,5 C 21,1 C 20,6 C 84 % 1003,7 hPa 0,0 l/m 0 min 0 min 0 W/m 0,0 km/h (0 Bft) 95,74 %
27.07.2019 04:12 22,5 C 20,6 C 20,6 C 84 % 1003,6 hPa 0,0 l/m 0 min 0 min 0 W/m 0,0 km/h (0 Bft) 93,62 %
27.07.2019 04:14 22,4 C 21,1 C 20,6 C 84 % 1003,7 hPa 0,0 l/m 0 min 0 min 0 W/m 0,0 km/h (0 Bft) 97,83 %
27.07.2019 04:16 22,4 C 21,1 C 20,6 C 84 % 1003,7 hPa 0,0 l/m 0 min 0 min 0 W/m 0,0 km/h (0 Bft) 95,74 %
27.07.2019 04:18 22,4 C 21,1 C 20,6 C 84 % 1003,7 hPa 0,0 l/m 0 min 0 min 0 W/m 0,0 km/h (0 Bft) 93,62 %
27.07.2019 04:20 22,4 C 21,1 C 21,1 C 84 % 1003,7 hPa 0,0 l/m 0 min 0 min 0 W/m 0,0 km/h (0 Bft) 97,87 %
27.07.2019 04:22 22,4 C 21,1 C 20,6 C 84 % 1003,7 hPa 0,0 l/m 0 min 0 min 0 W/m 0,0 km/h (0 Bft) 97,87 %
27.07.2019 04:24 22,4 C 21,1 C 20,6 C 84 % 1003,7 hPa 0,0 l/m 0 min 0 min 0 W/m 0,0 km/h (0 Bft) 97,87 %
27.07.2019 04:26 22,4 C 21,1 C 20,6 C 84 % 1003,8 hPa 0,0 l/m 0 min 0 min 0 W/m 0,0 km/h (0 Bft) 97,83 %
27.07.2019 04:28 22,4 C 21,1 C 20,6 C 84 % 1003,8 hPa 0,0 l/m 0 min 0 min 0 W/m 0,0 km/h (0 Bft) 97,87 %
27.07.2019 04:30 22,3 C 21,1 C 20,6 C 84 % 1003,9 hPa 0,0 l/m 0 min 0 min 0 W/m 0,0 km/h (0 Bft) 95,74 %
27.07.2019 04:32 22,3 C 21,1 C 21,1 C 84 % 1003,9 hPa 0,0 l/m 0 min 0 min 0 W/m 0,0 km/h (0 Bft) 97,87 %
27.07.2019 04:34 22,3 C 21,1 C 21,1 C 84 % 1003,9 hPa 0,0 l/m 0 min 0 min 0 W/m 0,0 km/h (0 Bft) 97,87 %
27.07.2019 04:36 22,3 C 21,1 C 21,1 C 84 % 1003,9 hPa 0,0 l/m 0 min 0 min 0 W/m 6,4 km/h (2 Bft) 97,83 %
27.07.2019 04:38 22,3 C 21,1 C 21,1 C 84 % 1004,0 hPa 0,0 l/m 0 min 0 min 0 W/m 6,4 km/h (2 Bft) 95,74 %
27.07.2019 04:40 22,3 C 21,1 C 21,1 C 84 % 1003,9 hPa 0,0 l/m 0 min 0 min 0 W/m 3,2 km/h (1 Bft) 95,74 %
27.07.2019 04:42 22,3 C 21,1 C 21,1 C 84 % 1003,9 hPa 0,0 l/m 0 min 0 min 0 W/m 6,4 km/h (2 Bft) 95,74 %
27.07.2019 04:44 22,3 C 21,1 C 21,1 C 84 % 1003,9 hPa 0,0 l/m 0 min 0 min 0 W/m 6,4 km/h (2 Bft) 97,87 %
27.07.2019 04:46 22,3 C 21,1 C 21,1 C 85 % 1003,8 hPa 0,0 l/m 0 min 0 min 0 W/m 6,4 km/h (2 Bft) 95,74 %
27.07.2019 04:48 22,3 C 21,1 C 21,1 C 85 % 1003,7 hPa 0,0 l/m 0 min 0 min 0 W/m 6,4 km/h (2 Bft) 95,65 %
27.07.2019 04:50 22,3 C 21,1 C 21,1 C 85 % 1003,7 hPa 0,0 l/m 0 min 0 min 0 W/m 6,4 km/h (2 Bft) 95,74 %
27.07.2019 04:52 22,3 C 21,1 C 21,1 C 85 % 1003,7 hPa 0,0 l/m 0 min 0 min 0 W/m 3,2 km/h (1 Bft) 97,87 %
27.07.2019 04:54 22,3 C 21,1 C 21,1 C 85 % 1003,7 hPa 0,0 l/m 0 min 0 min 0 W/m 0,0 km/h (0 Bft) 100,00 %
27.07.2019 04:56 22,3 C 21,1 C 21,1 C 85 % 1003,7 hPa 0,0 l/m 0 min 0 min 0 W/m 3,2 km/h (1 Bft) 97,87 %
27.07.2019 04:58 22,3 C 21,1 C 21,1 C 85 % 1003,6 hPa 0,0 l/m 0 min 0 min 0 W/m 3,2 km/h (1 Bft) 97,87 %
27.07.2019 05:00 22,3 C 21,1 C 21,1 C 85 % 1003,6 hPa 0,0 l/m 0 min 0 min 0 W/m 0,0 km/h (0 Bft) 95,65 %
27.07.2019 05:02 22,3 C 21,1 C 21,1 C 85 % 1003,6 hPa 0,0 l/m 0 min 0 min 0 W/m 0,0 km/h (0 Bft) 97,87 %
27.07.2019 05:04 22,3 C 21,1 C 21,1 C 85 % 1003,6 hPa 0,0 l/m 0 min 0 min 0 W/m 0,0 km/h (0 Bft) 97,92 %
27.07.2019 05:08 22,3 C 21,1 C 21,1 C 86 % 1003,7 hPa 0,0 l/m 0 min 0 min 0 W/m 0,0 km/h (0 Bft) 96,91 %
27.07.2019 05:10 22,3 C 21,1 C 21,1 C 86 % 1003,7 hPa 0,0 l/m 0 min 0 min 0 W/m 0,0 km/h (0 Bft) 95,74 %
27.07.2019 05:12 22,3 C 21,1 C 21,1 C 86 % 1003,6 hPa 0,0 l/m 0 min 0 min 0 W/m 0,0 km/h (0 Bft) 97,83 %
27.07.2019 05:14 22,3 C 21,1 C 21,1 C 86 % 1003,5 hPa 0,0 l/m 0 min 0 min 0 W/m 0,0 km/h (0 Bft) 97,87 %
27.07.2019 05:16 22,3 C 21,1 C 21,1 C 86 % 1003,5 hPa 0,0 l/m 0 min 0 min 0 W/m 0,0 km/h (0 Bft) 97,87 %
27.07.2019 05:18 22,3 C 21,1 C 21,1 C 86 % 1003,5 hPa 0,0 l/m 0 min 0 min 0 W/m 0,0 km/h (0 Bft) 97,87 %
27.07.2019 05:20 22,3 C 21,1 C 21,1 C 86 % 1003,5 hPa 0,0 l/m 0 min 0 min 0 W/m 0,0 km/h (0 Bft) 97,87 %
27.07.2019 05:22 22,2 C 21,1 C 21,1 C 86 % 1003,4 hPa 0,0 l/m 0 min 0 min 0 W/m 3,2 km/h (1 Bft) 97,83 %
27.07.2019 05:24 22,2 C 21,1 C 21,1 C 86 % 1003,4 hPa 0,0 l/m 0 min 0 min 0 W/m 3,2 km/h (1 Bft) 95,74 %
27.07.2019 05:26 22,2 C 21,1 C 21,1 C 86 % 1003,3 hPa 0,0 l/m 0 min 0 min 0 W/m 0,0 km/h (0 Bft) 97,87 %
27.07.2019 05:28 22,2 C 21,1 C 21,1 C 86 % 1003,3 hPa 0,0 l/m 0 min 0 min 0 W/m 0,0 km/h (0 Bft) 95,74 %
27.07.2019 05:30 22,2 C 21,1 C 21,1 C 86 % 1003,3 hPa 0,0 l/m 0 min 0 min 0 W/m 0,0 km/h (0 Bft) 97,87 %
27.07.2019 05:32 22,2 C 20,6 C 20,6 C 86 % 1003,3 hPa 0,0 l/m 0 min 0 min 0 W/m 0,0 km/h (0 Bft) 97,87 %
27.07.2019 05:34 22,2 C 20,6 C 20,6 C 86 % 1003,3 hPa 0,0 l/m 0 min 0 min 0 W/m 0,0 km/h (0 Bft) 97,83 %
27.07.2019 05:36 22,2 C 20,6 C 20,6 C 86 % 1003,1 hPa 0,0 l/m 0 min 0 min 0 W/m 0,0 km/h (0 Bft) 97,87 %
27.07.2019 05:38 22,2 C 20,6 C 20,6 C 86 % 1003,0 hPa 0,0 l/m 0 min 0 min 2 W/m 0,0 km/h (0 Bft) 97,87 %
27.07.2019 05:40 22,2 C 20,6 C 20,6 C 86 % 1003,1 hPa 0,0 l/m 0 min 0 min 5 W/m 0,0 km/h (0 Bft) 95,74 %
27.07.2019 05:42 22,2 C 20,6 C 20,6 C 86 % 1003,0 hPa 0,0 l/m 0 min 0 min 8 W/m 0,0 km/h (0 Bft) 97,87 %
27.07.2019 05:44 22,2 C 20,6 C 20,6 C 86 % 1003,1 hPa 0,0 l/m 0 min 0 min 10 W/m 0,0 km/h (0 Bft) 97,87 %
27.07.2019 05:46 22,2 C 20,6 C 20,6 C 86 % 1003,1 hPa 0,0 l/m 0 min 0 min 12 W/m 3,2 km/h (1 Bft) 97,83 %
27.07.2019 05:48 22,2 C 20,6 C 20,6 C 86 % 1003,1 hPa 0,0 l/m 0 min 0 min 13 W/m 0,0 km/h (0 Bft) 97,87 %
27.07.2019 05:50 22,1 C 20,6 C 20,6 C 86 % 1003,1 hPa 0,0 l/m 0 min 0 min 16 W/m 0,0 km/h (0 Bft) 100,00 %
27.07.2019 05:52 22,1 C 20,6 C 20,6 C 86 % 1003,1 hPa 0,0 l/m 0 min 0 min 19 W/m 0,0 km/h (0 Bft) 100,00 %
27.07.2019 05:54 22,1 C 20,6 C 20,6 C 86 % 1003,1 hPa 0,0 l/m 0 min 0 min 0 W/m 0,0 km/h (0 Bft) 97,87 %
27.07.2019 05:56 22,1 C 20,6 C 20,6 C 86 % 1003,2 hPa 0,0 l/m 0 min 0 min 0 W/m 0,0 km/h (0 Bft) 100,00 %
27.07.2019 05:58 22,1 C 21,1 C 20,6 C 86 % 1003,4 hPa 0,0 l/m 0 min 0 min 2 W/m 0,0 km/h (0 Bft) 100,00 %
27.07.2019 06:00 22,1 C 21,1 C 20,6 C 86 % 1003,4 hPa 0,0 l/m 0 min 0 min 6 W/m 0,0 km/h (0 Bft) 100,00 %
27.07.2019 06:02 22,1 C 21,1 C 20,6 C 86 % 1003,4 hPa 0,0 l/m 0 min 0 min 11 W/m 3,2 km/h (1 Bft) 100,00 %
27.07.2019 06:04 22,1 C 21,1 C 20,6 C 86 % 1003,4 hPa 0,0 l/m 0 min 0 min 16 W/m 3,2 km/h (1 Bft) 100,00 %
27.07.2019 06:08 22,0 C 21,1 C 21,1 C 87 % 1003,5 hPa 0,0 l/m 4 min 0 min 29 W/m 3,2 km/h (1 Bft) 95,70 %
27.07.2019 06:10 22,1 C 21,1 C 21,1 C 87 % 1003,5 hPa 0,0 l/m 2 min 0 min 28 W/m 0,0 km/h (0 Bft) 95,74 %
27.07.2019 06:12 22,0 C 21,1 C 21,1 C 87 % 1003,4 hPa 0,0 l/m 2 min 0 min 28 W/m 0,0 km/h (0 Bft) 97,87 %
27.07.2019 06:14 22,0 C 21,1 C 21,1 C 87 % 1003,5 hPa 0,0 l/m 2 min 0 min 28 W/m 3,2 km/h (1 Bft) 94,29 %
27.07.2019 06:16 22,0 C 21,1 C 21,1 C 87 % 1003,4 hPa 0,0 l/m 2 min 0 min 28 W/m 0,0 km/h (0 Bft) 98,00 %
27.07.2019 06:18 22,0 C 21,1 C 21,1 C 87 % 1003,4 hPa 0,0 l/m 2 min 0 min 28 W/m 3,2 km/h (1 Bft) 97,87 %
27.07.2019 06:20 22,0 C 21,1 C 21,1 C 87 % 1003,4 hPa 0,0 l/m 2 min 0 min 27 W/m 3,2 km/h (1 Bft) 97,87 %
27.07.2019 06:22 22,0 C 21,1 C 21,1 C 87 % 1003,5 hPa 0,0 l/m 0 min 0 min 25 W/m 3,2 km/h (1 Bft) 97,87 %
27.07.2019 06:24 22,0 C 21,1 C 21,1 C 87 % 1003,5 hPa 0,0 l/m 0 min 0 min 23 W/m 0,0 km/h (0 Bft) 97,83 %
27.07.2019 06:26 22,0 C 21,1 C 21,1 C 87 % 1003,5 hPa 0,0 l/m 0 min 0 min 23 W/m 3,2 km/h (1 Bft) 95,74 %
27.07.2019 06:28 22,0 C 21,1 C 21,1 C 87 % 1003,5 hPa 0,0 l/m 0 min 0 min 23 W/m 3,2 km/h (1 Bft) 95,74 %
27.07.2019 06:30 22,0 C 21,1 C 21,1 C 87 % 1003,5 hPa 0,0 l/m 0 min 0 min 23 W/m 0,0 km/h (0 Bft) 97,87 %
27.07.2019 06:32 22,0 C 21,1 C 21,1 C 87 % 1003,6 hPa 0,0 l/m 0 min 0 min 23 W/m 0,0 km/h (0 Bft) 97,87 %
27.07.2019 06:34 22,0 C 21,1 C 21,1 C 87 % 1003,5 hPa 0,0 l/m 0 min 0 min 23 W/m 0,0 km/h (0 Bft) 97,87 %
27.07.2019 06:36 22,0 C 21,1 C 21,1 C 87 % 1003,5 hPa 0,0 l/m 0 min 0 min 23 W/m 0,0 km/h (0 Bft) 97,83 %
27.07.2019 06:38 22,0 C 21,1 C 21,1 C 87 % 1003,4 hPa 0,0 l/m 0 min 0 min 25 W/m 0,0 km/h (0 Bft) 97,87 %
27.07.2019 06:40 22,0 C 21,1 C 21,1 C 87 % 1003,4 hPa 0,0 l/m 0 min 0 min 27 W/m 0,0 km/h (0 Bft) 97,87 %
27.07.2019 06:42 22,0 C 21,1 C 21,1 C 88 % 1003,5 hPa 0,0 l/m 0 min 0 min 30 W/m 0,0 km/h (0 Bft) 97,87 %
27.07.2019 06:44 21,9 C 21,1 C 21,1 C 87 % 1003,4 hPa 0,0 l/m 0 min 0 min 31 W/m 0,0 km/h (0 Bft) 95,74 %
27.07.2019 06:46 21,9 C 21,1 C 21,1 C 87 % 1003,4 hPa 0,0 l/m 0 min 0 min 34 W/m 0,0 km/h (0 Bft) 97,87 %
27.07.2019 06:48 21,9 C 21,1 C 21,1 C 88 % 1003,3 hPa 0,0 l/m 0 min 0 min 37 W/m 0,0 km/h (0 Bft) 97,83 %
27.07.2019 06:50 22,0 C 21,1 C 21,1 C 88 % 1003,4 hPa 0,0 l/m 0 min 0 min 40 W/m 0,0 km/h (0 Bft) 97,87 %
27.07.2019 06:52 21,9 C 21,1 C 21,1 C 88 % 1003,3 hPa 0,0 l/m 0 min 0 min 41 W/m 3,2 km/h (1 Bft) 100,00 %
27.07.2019 06:54 21,9 C 21,1 C 21,1 C 88 % 1003,3 hPa 0,0 l/m 0 min 0 min 44 W/m 0,0 km/h (0 Bft) 100,00 %
27.07.2019 06:56 21,9 C 21,1 C 21,1 C 88 % 1003,3 hPa 0,0 l/m 0 min 0 min 46 W/m 0,0 km/h (0 Bft) 100,00 %
27.07.2019 06:58 22,0 C 21,1 C 21,1 C 88 % 1003,2 hPa 0,0 l/m 0 min 0 min 46 W/m 0,0 km/h (0 Bft) 97,87 %
27.07.2019 07:00 22,0 C 21,1 C 21,1 C 88 % 1003,3 hPa 0,0 l/m 0 min 0 min 49 W/m 0,0 km/h (0 Bft) 100,00 %
27.07.2019 07:02 22,0 C 21,1 C 21,1 C 88 % 1003,2 hPa 0,0 l/m 0 min 0 min 52 W/m 9,7 km/h (2 Bft) 97,87 %
27.07.2019 07:04 22,0 C 21,7 C 21,1 C 88 % 1003,2 hPa 0,0 l/m 0 min 0 min 53 W/m 0,0 km/h (0 Bft) 97,87 %
27.07.2019 07:08 22,0 C 21,7 C 21,1 C 88 % 1003,0 hPa 0,0 l/m 0 min 0 min 53 W/m 3,2 km/h (1 Bft) 100,00 %
27.07.2019 07:10 22,0 C 21,7 C 21,1 C 88 % 1003,0 hPa 0,0 l/m 0 min 0 min 53 W/m 3,2 km/h (1 Bft) 97,87 %
27.07.2019 07:12 22,0 C 21,7 C 21,1 C 88 % 1003,1 hPa 0,0 l/m 0 min 0 min 53 W/m 0,0 km/h (0 Bft) 100,00 %
27.07.2019 07:14 22,0 C 21,1 C 21,1 C 88 % 1003,3 hPa 0,0 l/m 0 min 0 min 54 W/m 12,9 km/h (3 Bft) 100,00 %
27.07.2019 07:16 22,0 C 21,1 C 21,1 C 88 % 1003,3 hPa 0,0 l/m 0 min 0 min 54 W/m 3,2 km/h (1 Bft) 100,00 %
27.07.2019 07:18 22,0 C 21,7 C 21,1 C 89 % 1003,3 hPa 0,0 l/m 0 min 0 min 54 W/m 0,0 km/h (0 Bft) 100,00 %
27.07.2019 07:20 22,0 C 21,7 C 21,1 C 89 % 1003,2 hPa 0,0 l/m 0 min 0 min 54 W/m 3,2 km/h (1 Bft) 97,87 %
27.07.2019 07:22 22,0 C 21,7 C 21,1 C 89 % 1003,2 hPa 0,0 l/m 0 min 0 min 57 W/m 0,0 km/h (0 Bft) 97,83 %
27.07.2019 07:24 22,0 C 21,7 C 21,1 C 89 % 1003,1 hPa 0,0 l/m 0 min 0 min 59 W/m 6,4 km/h (2 Bft) 97,87 %
27.07.2019 07:26 22,0 C 21,7 C 21,1 C 89 % 1003,3 hPa 0,0 l/m 0 min 0 min 62 W/m 6,4 km/h (2 Bft) 95,74 %
27.07.2019 07:28 22,0 C 21,7 C 21,7 C 89 % 1003,3 hPa 0,0 l/m 0 min 0 min 65 W/m 0,0 km/h (0 Bft) 93,62 %
27.07.2019 07:30 22,0 C 21,7 C 21,7 C 89 % 1003,3 hPa 0,0 l/m 0 min 0 min 68 W/m 3,2 km/h (1 Bft) 97,87 %
27.07.2019 07:32 22,1 C 21,7 C 21,7 C 89 % 1003,3 hPa 0,0 l/m 0 min 0 min 73 W/m 0,0 km/h (0 Bft) 95,74 %
27.07.2019 07:34 22,1 C 21,7 C 21,7 C 89 % 1003,3 hPa 0,0 l/m 0 min 0 min 77 W/m 6,4 km/h (2 Bft) 97,83 %
27.07.2019 07:36 22,1 C 22,2 C 21,7 C 89 % 1003,2 hPa 0,0 l/m 0 min 0 min 82 W/m 3,2 km/h (1 Bft) 97,87 %
27.07.2019 07:38 22,1 C 22,2 C 21,7 C 89 % 1003,2 hPa 0,0 l/m 0 min 0 min 86 W/m 3,2 km/h (1 Bft) 97,87 %
27.07.2019 07:40 22,1 C 21,7 C 21,7 C 89 % 1003,1 hPa 0,0 l/m 0 min 0 min 90 W/m 0,0 km/h (0 Bft) 97,87 %
27.07.2019 07:42 22,1 C 22,2 C 21,7 C 89 % 1003,1 hPa 0,0 l/m 0 min 0 min 93 W/m 3,2 km/h (1 Bft) 95,74 %
27.07.2019 07:44 22,1 C 22,2 C 21,7 C 89 % 1003,1 hPa 0,0 l/m 0 min 0 min 93 W/m 3,2 km/h (1 Bft) 95,74 %
27.07.2019 07:46 22,1 C 22,2 C 21,7 C 89 % 1003,1 hPa 0,0 l/m 0 min 0 min 95 W/m 6,4 km/h (2 Bft) 95,65 %
27.07.2019 07:48 22,1 C 22,2 C 21,7 C 89 % 1003,0 hPa 0,0 l/m 0 min 0 min 92 W/m 6,4 km/h (2 Bft) 97,87 %
27.07.2019 07:50 22,1 C 22,2 C 21,7 C 89 % 1003,0 hPa 0,0 l/m 0 min 0 min 90 W/m 6,4 km/h (2 Bft) 97,87 %
27.07.2019 07:52 22,1 C 22,2 C 21,7 C 89 % 1003,1 hPa 0,0 l/m 0 min 0 min 89 W/m 9,7 km/h (2 Bft) 95,74 %
27.07.2019 07:54 22,2 C 22,2 C 21,7 C 89 % 1003,0 hPa 0,0 l/m 0 min 0 min 87 W/m 3,2 km/h (1 Bft) 93,62 %
27.07.2019 07:56 22,2 C 22,2 C 21,7 C 89 % 1003,0 hPa 0,0 l/m 0 min 0 min 86 W/m 3,2 km/h (1 Bft) 95,74 %
27.07.2019 07:58 22,2 C 22,2 C 21,7 C 89 % 1003,1 hPa 0,0 l/m 0 min 0 min 84 W/m 0,0 km/h (0 Bft) 97,83 %
27.07.2019 08:00 22,2 C 22,2 C 21,7 C 89 % 1003,1 hPa 0,0 l/m 0 min 0 min 83 W/m 0,0 km/h (0 Bft) 97,87 %
27.07.2019 08:02 22,2 C 22,2 C 21,7 C 89 % 1003,0 hPa 0,0 l/m 0 min 0 min 83 W/m 0,0 km/h (0 Bft) 91,49 %
27.07.2019 08:04 22,2 C 22,2 C 21,7 C 89 % 1003,1 hPa 0,0 l/m 0 min 0 min 83 W/m 6,4 km/h (2 Bft) 95,74 %
27.07.2019 08:08 22,2 C 22,2 C 21,7 C 89 % 1003,1 hPa 0,0 l/m 0 min 0 min 82 W/m 3,2 km/h (1 Bft) 95,74 %
27.07.2019 08:10 22,2 C 22,8 C 21,7 C 89 % 1003,1 hPa 0,0 l/m 0 min 0 min 83 W/m 0,0 km/h (0 Bft) 95,65 %
27.07.2019 08:12 22,2 C 22,8 C 21,7 C 89 % 1003,1 hPa 0,0 l/m 0 min 0 min 84 W/m 3,2 km/h (1 Bft) 95,74 %
27.07.2019 08:14 22,3 C 22,8 C 22,2 C 89 % 1003,0 hPa 0,0 l/m 0 min 0 min 87 W/m 3,2 km/h (1 Bft) 97,87 %
27.07.2019 08:16 22,3 C 22,8 C 21,7 C 89 % 1003,1 hPa 0,0 l/m 0 min 0 min 89 W/m 3,2 km/h (1 Bft) 97,87 %
27.07.2019 08:18 22,3 C 22,8 C 22,2 C 89 % 1003,0 hPa 0,0 l/m 0 min 0 min 94 W/m 0,0 km/h (0 Bft) 97,87 %
27.07.2019 08:20 22,3 C 22,8 C 22,2 C 89 % 1003,1 hPa 0,0 l/m 0 min 0 min 100 W/m 0,0 km/h (0 Bft) 97,83 %
27.07.2019 08:22 22,3 C 22,8 C 22,2 C 89 % 1003,1 hPa 0,0 l/m 0 min 0 min 104 W/m 0,0 km/h (0 Bft) 97,87 %
27.07.2019 08:24 22,3 C 22,8 C 22,2 C 89 % 1003,1 hPa 0,0 l/m 0 min 0 min 106 W/m 3,2 km/h (1 Bft) 95,74 %
27.07.2019 08:26 22,3 C 22,8 C 22,2 C 88 % 1003,1 hPa 0,0 l/m 0 min 0 min 111 W/m 3,2 km/h (1 Bft) 97,87 %
27.07.2019 08:28 22,3 C 22,8 C 22,2 C 88 % 1003,1 hPa 0,0 l/m 0 min 0 min 115 W/m 3,2 km/h (1 Bft) 97,87 %
27.07.2019 08:30 22,4 C 22,8 C 22,8 C 88 % 1003,1 hPa 0,0 l/m 0 min 0 min 117 W/m 3,2 km/h (1 Bft) 95,74 %
27.07.2019 08:32 22,4 C 22,8 C 22,8 C 88 % 1003,3 hPa 0,0 l/m 0 min 0 min 119 W/m 3,2 km/h (1 Bft) 97,83 %
27.07.2019 08:34 22,4 C 22,8 C 22,8 C 88 % 1003,2 hPa 0,0 l/m 0 min 0 min 121 W/m 6,4 km/h (2 Bft) 93,62 %
27.07.2019 08:36 22,4 C 23,3 C 22,8 C 88 % 1003,4 hPa 0,0 l/m 0 min 0 min 121 W/m 3,2 km/h (1 Bft) 97,87 %
27.07.2019 08:38 22,4 C 22,8 C 22,8 C 88 % 1003,4 hPa 0,0 l/m 0 min 0 min 121 W/m 6,4 km/h (2 Bft) 97,87 %
27.07.2019 08:40 22,4 C 22,8 C 22,8 C 88 % 1003,4 hPa 0,0 l/m 0 min 0 min 121 W/m 6,4 km/h (2 Bft) 95,74 %
27.07.2019 08:42 22,5 C 22,8 C 22,8 C 88 % 1003,4 hPa 0,0 l/m 0 min 0 min 121 W/m 6,4 km/h (2 Bft) 95,74 %
27.07.2019 08:44 22,5 C 22,8 C 22,8 C 88 % 1003,5 hPa 0,0 l/m 0 min 0 min 122 W/m 6,4 km/h (2 Bft) 93,48 %
27.07.2019 08:46 22,5 C 22,8 C 22,2 C 87 % 1003,4 hPa 0,0 l/m 0 min 0 min 123 W/m 6,4 km/h (2 Bft) 93,62 %
27.07.2019 08:48 22,5 C 23,3 C 22,8 C 87 % 1003,4 hPa 0,0 l/m 0 min 0 min 129 W/m 6,4 km/h (2 Bft) 95,74 %
27.07.2019 08:50 22,6 C 23,3 C 23,3 C 87 % 1003,4 hPa 0,0 l/m 0 min 0 min 153 W/m 12,9 km/h (3 Bft) 95,74 %
27.07.2019 08:52 22,6 C 23,9 C 23,3 C 87 % 1003,4 hPa 0,0 l/m 0 min 0 min 160 W/m 6,4 km/h (2 Bft) 95,74 %
27.07.2019 08:54 22,6 C 23,9 C 23,9 C 87 % 1003,5 hPa 0,0 l/m 0 min 0 min 182 W/m 9,7 km/h (2 Bft) 95,74 %
27.07.2019 08:56 22,6 C 24,4 C 23,9 C 87 % 1003,4 hPa 0,0 l/m 0 min 0 min 189 W/m 6,4 km/h (2 Bft) 91,30 %
27.07.2019 08:58 22,6 C 25,0 C 24,4 C 86 % 1003,4 hPa 0,0 l/m 0 min 0 min 198 W/m 6,4 km/h (2 Bft) 95,74 %
27.07.2019 09:00 22,7 C 25,0 C 24,4 C 86 % 1003,5 hPa 0,0 l/m 0 min 0 min 220 W/m 6,4 km/h (2 Bft) 95,74 %
27.07.2019 09:02 22,7 C 25,6 C 25,6 C 86 % 1003,5 hPa 0,0 l/m 2 min 0 min 252 W/m 6,4 km/h (2 Bft) 97,87 %
27.07.2019 09:04 22,8 C 26,1 C 26,1 C 86 % 1003,5 hPa 0,0 l/m 2 min 0 min 296 W/m 6,4 km/h (2 Bft) 95,74 %
27.07.2019 09:08 22,9 C 26,7 C 26,7 C 86 % 1003,4 hPa 0,0 l/m 4 min 0 min 339 W/m 9,7 km/h (2 Bft) 97,85 %
27.07.2019 09:10 23,1 C 26,7 C 27,2 C 85 % 1003,5 hPa 0,0 l/m 2 min 0 min 335 W/m 12,9 km/h (3 Bft) 97,87 %
27.07.2019 09:12 23,1 C 26,1 C 26,1 C 85 % 1003,5 hPa 0,0 l/m 2 min 0 min 304 W/m 6,4 km/h (2 Bft) 97,87 %
27.07.2019 09:14 23,2 C 26,7 C 26,7 C 85 % 1003,5 hPa 0,0 l/m 2 min 0 min 320 W/m 3,2 km/h (1 Bft) 93,62 %
27.07.2019 09:16 23,2 C 26,7 C 26,7 C 85 % 1003,5 hPa 0,0 l/m 2 min 0 min 338 W/m 6,4 km/h (2 Bft) 97,87 %
27.07.2019 09:18 23,3 C 27,2 C 27,2 C 85 % 1003,6 hPa 0,0 l/m 2 min 0 min 346 W/m 6,4 km/h (2 Bft) 97,87 %
27.07.2019 09:20 23,4 C 26,1 C 26,7 C 84 % 1003,6 hPa 0,0 l/m 2 min 0 min 334 W/m 6,4 km/h (2 Bft) 95,65 %
27.07.2019 09:22 23,4 C 26,1 C 26,7 C 84 % 1003,6 hPa 0,0 l/m 2 min 0 min 284 W/m 6,4 km/h (2 Bft) 97,87 %
27.07.2019 09:24 23,5 C 26,7 C 27,2 C 83 % 1003,6 hPa 0,0 l/m 2 min 0 min 383 W/m 6,4 km/h (2 Bft) 100,00 %
27.07.2019 09:26 23,6 C 27,2 C 27,2 C 83 % 1003,6 hPa 0,0 l/m 2 min 0 min 403 W/m 6,4 km/h (2 Bft) 100,00 %
27.07.2019 09:28 23,6 C 27,2 C 27,2 C 83 % 1003,6 hPa 0,0 l/m 2 min 0 min 340 W/m 6,4 km/h (2 Bft) 100,00 %
27.07.2019 09:30 23,7 C 27,2 C 27,2 C 83 % 1003,6 hPa 0,0 l/m 2 min 0 min 279 W/m 6,4 km/h (2 Bft) 100,00 %
27.07.2019 09:32 23,8 C 27,2 C 27,8 C 83 % 1003,6 hPa 0,0 l/m 2 min 0 min 382 W/m 9,7 km/h (2 Bft) 97,83 %
27.07.2019 09:34 23,9 C 27,2 C 27,8 C 82 % 1003,6 hPa 0,0 l/m 2 min 0 min 434 W/m 6,4 km/h (2 Bft) 97,87 %
27.07.2019 09:36 23,9 C 28,3 C 28,3 C 82 % 1003,6 hPa 0,0 l/m 2 min 0 min 447 W/m 9,7 km/h (2 Bft) 100,00 %
27.07.2019 09:38 24,1 C 28,3 C 28,9 C 82 % 1003,6 hPa 0,0 l/m 2 min 0 min 451 W/m 9,7 km/h (2 Bft) 100,00 %
27.07.2019 09:40 24,2 C 27,8 C 28,9 C 81 % 1003,6 hPa 0,0 l/m 2 min 0 min 458 W/m 9,7 km/h (2 Bft) 100,00 %
27.07.2019 09:42 24,2 C 27,2 C 28,3 C 81 % 1003,5 hPa 0,0 l/m 2 min 0 min 468 W/m 9,7 km/h (2 Bft) 100,00 %
27.07.2019 09:44 24,3 C 27,8 C 28,3 C 80 % 1003,5 hPa 0,0 l/m 2 min 0 min 466 W/m 6,4 km/h (2 Bft) 100,00 %
27.07.2019 09:47 24,4 C 27,8 C 28,3 C 81 % 1003,5 hPa 0,0 l/m 3 min 0 min 421 W/m 6,4 km/h (2 Bft) 100,00 %
27.07.2019 09:48 24,5 C 27,8 C 28,9 C 80 % 1003,5 hPa 0,0 l/m 0 min 0 min 258 W/m 6,4 km/h (2 Bft) 100,00 %
27.07.2019 09:50 24,6 C 28,3 C 28,9 C 81 % 1003,4 hPa 0,0 l/m 2 min 0 min 357 W/m 3,2 km/h (1 Bft) 100,00 %
27.07.2019 09:52 24,7 C 27,2 C 27,8 C 80 % 1003,5 hPa 0,0 l/m 2 min 0 min 399 W/m 3,2 km/h (1 Bft) 100,00 %
27.07.2019 09:54 24,7 C 26,1 C 26,7 C 79 % 1003,5 hPa 0,0 l/m 0 min 0 min 168 W/m 3,2 km/h (1 Bft) 100,00 %
27.07.2019 09:56 24,7 C 26,7 C 27,2 C 79 % 1003,4 hPa 0,0 l/m 0 min 0 min 185 W/m 6,4 km/h (2 Bft) 100,00 %
27.07.2019 09:58 24,7 C 27,8 C 27,8 C 79 % 1003,4 hPa 0,0 l/m 2 min 0 min 487 W/m 3,2 km/h (1 Bft) 100,00 %
27.07.2019 10:00 24,7 C 27,8 C 28,9 C 79 % 1003,5 hPa 0,0 l/m 2 min 0 min 496 W/m 6,4 km/h (2 Bft) 97,87 %
27.07.2019 10:02 24,8 C 27,8 C 28,9 C 79 % 1003,4 hPa 0,0 l/m 2 min 0 min 474 W/m 6,4 km/h (2 Bft) 100,00 %
27.07.2019 10:04 24,8 C 28,9 C 30,0 C 79 % 1003,4 hPa 0,0 l/m 2 min 0 min 500 W/m 3,2 km/h (1 Bft) 100,00 %
27.07.2019 10:08 25,1 C 29,4 C 30,0 C 79 % 1003,5 hPa 0,0 l/m 4 min 0 min 503 W/m 6,4 km/h (2 Bft) 98,94 %
27.07.2019 10:10 25,1 C 30,0 C 30,6 C 79 % 1003,5 hPa 0,0 l/m 2 min 0 min 500 W/m 3,2 km/h (1 Bft) 100,00 %
27.07.2019 10:12 25,2 C 29,4 C 30,0 C 78 % 1003,5 hPa 0,0 l/m 2 min 0 min 500 W/m 3,2 km/h (1 Bft) 100,00 %
27.07.2019 10:14 25,3 C 30,0 C 30,6 C 78 % 1003,4 hPa 0,0 l/m 2 min 0 min 512 W/m 9,7 km/h (2 Bft) 100,00 %
27.07.2019 10:16 25,3 C 29,4 C 30,0 C 78 % 1003,5 hPa 0,0 l/m 2 min 0 min 493 W/m 9,7 km/h (2 Bft) 97,87 %
27.07.2019 10:18 25,4 C 30,0 C 30,0 C 78 % 1003,4 hPa 0,0 l/m 2 min 0 min 546 W/m 6,4 km/h (2 Bft) 97,87 %
27.07.2019 10:20 25,5 C 30,0 C 30,0 C 77 % 1003,4 hPa 0,0 l/m 2 min 0 min 551 W/m 6,4 km/h (2 Bft) 100,00 %
27.07.2019 10:22 25,6 C 30,0 C 30,6 C 77 % 1003,4 hPa 0,0 l/m 2 min 0 min 549 W/m 9,7 km/h (2 Bft) 100,00 %
27.07.2019 10:24 25,7 C 29,4 C 30,0 C 76 % 1003,4 hPa 0,0 l/m 2 min 0 min 559 W/m 16,1 km/h (3 Bft) 97,83 %
27.07.2019 10:26 25,7 C 29,4 C 30,0 C 76 % 1003,4 hPa 0,0 l/m 2 min 0 min 562 W/m 9,7 km/h (2 Bft) 95,74 %
27.07.2019 10:28 25,8 C 29,4 C 30,6 C 76 % 1003,4 hPa 0,0 l/m 2 min 0 min 536 W/m 12,9 km/h (3 Bft) 97,87 %
27.07.2019 10:30 25,8 C 29,4 C 30,6 C 76 % 1003,4 hPa 0,0 l/m 2 min 0 min 513 W/m 6,4 km/h (2 Bft) 97,87 %
27.07.2019 10:32 25,9 C 27,8 C 28,3 C 76 % 1003,4 hPa 0,0 l/m 2 min 0 min 363 W/m 6,4 km/h (2 Bft) 100,00 %
27.07.2019 10:34 25,9 C 27,8 C 28,3 C 76 % 1003,3 hPa 0,0 l/m 2 min 0 min 370 W/m 6,4 km/h (2 Bft) 95,74 %
27.07.2019 10:36 25,9 C 28,9 C 28,9 C 76 % 1003,3 hPa 0,0 l/m 2 min 0 min 438 W/m 9,7 km/h (2 Bft) 97,87 %
27.07.2019 10:38 25,9 C 28,9 C 28,9 C 76 % 1003,3 hPa 0,0 l/m 2 min 0 min 550 W/m 9,7 km/h (2 Bft) 95,74 %
27.07.2019 10:40 25,9 C 28,9 C 30,0 C 76 % 1003,3 hPa 0,0 l/m 2 min 0 min 600 W/m 9,7 km/h (2 Bft) 97,83 %
27.07.2019 10:42 26,0 C 29,4 C 30,0 C 75 % 1003,2 hPa 0,0 l/m 2 min 0 min 596 W/m 9,7 km/h (2 Bft) 97,87 %
27.07.2019 10:44 26,0 C 30,0 C 30,6 C 75 % 1003,1 hPa 0,0 l/m 2 min 0 min 599 W/m 9,7 km/h (2 Bft) 95,74 %
27.07.2019 10:46 26,1 C 30,6 C 31,1 C 76 % 1003,2 hPa 0,0 l/m 2 min 0 min 584 W/m 9,7 km/h (2 Bft) 97,87 %
27.07.2019 10:48 26,1 C 30,6 C 30,6 C 76 % 1003,3 hPa 0,0 l/m 2 min 0 min 546 W/m 9,7 km/h (2 Bft) 97,87 %
27.07.2019 10:50 26,2 C 27,8 C 29,4 C 75 % 1003,3 hPa 0,0 l/m 2 min 0 min 438 W/m 12,9 km/h (3 Bft) 97,83 %
27.07.2019 10:52 26,2 C 27,2 C 28,3 C 75 % 1003,3 hPa 0,0 l/m 0 min 0 min 334 W/m 6,4 km/h (2 Bft) 97,87 %
27.07.2019 10:54 26,2 C 28,9 C 28,9 C 75 % 1003,3 hPa 0,0 l/m 2 min 0 min 482 W/m 6,4 km/h (2 Bft) 97,87 %
27.07.2019 10:56 26,3 C 28,9 C 29,4 C 75 % 1003,2 hPa 0,0 l/m 2 min 0 min 530 W/m 16,1 km/h (3 Bft) 98,00 %
27.07.2019 10:58 26,3 C 28,9 C 29,4 C 75 % 1003,2 hPa 0,0 l/m 2 min 0 min 516 W/m 9,7 km/h (2 Bft) 97,87 %
27.07.2019 11:00 26,3 C 28,3 C 29,4 C 74 % 1003,2 hPa 0,0 l/m 2 min 0 min 471 W/m 12,9 km/h (3 Bft) 97,87 %
27.07.2019 11:02 26,3 C 28,3 C 28,9 C 74 % 1003,1 hPa 0,0 l/m 2 min 0 min 354 W/m 6,4 km/h (2 Bft) 97,83 %
27.07.2019 11:04 26,4 C 28,3 C 28,3 C 74 % 1003,1 hPa 0,0 l/m 0 min 0 min 313 W/m 9,7 km/h (2 Bft) 97,87 %
27.07.2019 11:08 26,4 C 29,4 C 30,6 C 75 % 1003,0 hPa 0,0 l/m 4 min 0 min 520 W/m 12,9 km/h (3 Bft) 95,74 %
27.07.2019 11:10 26,4 C 30,6 C 31,1 C 74 % 1003,0 hPa 0,0 l/m 2 min 0 min 727 W/m 9,7 km/h (2 Bft) 95,74 %
27.07.2019 11:12 26,5 C 30,6 C 31,7 C 75 % 1002,9 hPa 0,0 l/m 2 min 0 min 714 W/m 12,9 km/h (3 Bft) 95,74 %
27.07.2019 11:14 26,6 C 31,7 C 32,2 C 76 % 1003,0 hPa 0,0 l/m 2 min 0 min 718 W/m 6,4 km/h (2 Bft) 95,65 %
27.07.2019 11:16 26,7 C 30,6 C 31,1 C 74 % 1003,0 hPa 0,0 l/m 2 min 0 min 717 W/m 12,9 km/h (3 Bft) 95,74 %
27.07.2019 11:18 26,8 C 28,3 C 29,4 C 73 % 1003,0 hPa 0,0 l/m 2 min 0 min 642 W/m 12,9 km/h (3 Bft) 91,49 %
27.07.2019 11:20 26,8 C 28,3 C 28,3 C 73 % 1002,9 hPa 0,0 l/m 0 min 0 min 355 W/m 6,4 km/h (2 Bft) 93,62 %
27.07.2019 11:22 26,8 C 27,8 C 28,3 C 73 % 1002,9 hPa 0,0 l/m 0 min 0 min 358 W/m 9,7 km/h (2 Bft) 95,74 %
27.07.2019 11:24 26,8 C 28,3 C 28,3 C 74 % 1002,9 hPa 0,0 l/m 2 min 0 min 398 W/m 9,7 km/h (2 Bft) 97,83 %
27.07.2019 11:26 26,8 C 29,4 C 29,4 C 73 % 1002,9 hPa 0,0 l/m 2 min 0 min 740 W/m 3,2 km/h (1 Bft) 97,42 %
27.07.2019 11:28 26,8 C 28,9 C 28,9 C 73 % 1002,9 hPa 0,0 l/m 2 min 0 min 613 W/m 9,7 km/h (2 Bft) 95,00 %
27.07.2019 11:30 26,8 C 28,3 C 28,3 C 73 % 1002,9 hPa 0,0 l/m 2 min 0 min 386 W/m 9,7 km/h (2 Bft) 95,74 %
27.07.2019 11:32 26,8 C 27,8 C 27,8 C 73 % 1002,9 hPa 0,0 l/m 2 min 0 min 413 W/m 16,1 km/h (3 Bft) 95,74 %
27.07.2019 11:34 26,8 C 27,8 C 27,8 C 73 % 1002,8 hPa 0,0 l/m 0 min 0 min 347 W/m 16,1 km/h (3 Bft) 95,74 %
27.07.2019 11:36 26,8 C 29,4 C 29,4 C 73 % 1002,8 hPa 0,0 l/m 0 min 0 min 338 W/m 6,4 km/h (2 Bft) 93,62 %
27.07.2019 11:38 26,8 C 30,6 C 30,6 C 73 % 1002,7 hPa 0,0 l/m 2 min 0 min 757 W/m 12,9 km/h (3 Bft) 91,43 %
27.07.2019 11:40 26,9 C 31,7 C 31,1 C 74 % 1002,7 hPa 0,0 l/m 2 min 0 min 710 W/m 9,7 km/h (2 Bft) 95,74 %
27.07.2019 11:42 27,1 C 32,2 C 32,2 C 75 % 1002,7 hPa 0,0 l/m 2 min 0 min 710 W/m 3,2 km/h (1 Bft) 94,83 %
27.07.2019 11:44 27,2 C 32,2 C 32,2 C 75 % 1002,8 hPa 0,0 l/m 2 min 0 min 607 W/m 9,7 km/h (2 Bft) 95,35 %
27.07.2019 11:46 27,2 C 31,1 C 31,1 C 73 % 1002,7 hPa 0,0 l/m 2 min 0 min 761 W/m 16,1 km/h (3 Bft) 95,92 %
27.07.2019 11:48 27,3 C 30,6 C 30,0 C 72 % 1002,7 hPa 0,0 l/m 2 min 0 min 603 W/m 9,7 km/h (2 Bft) 93,62 %
27.07.2019 11:50 27,3 C 30,0 C 30,0 C 72 % 1002,7 hPa 0,0 l/m 2 min 0 min 521 W/m 9,7 km/h (2 Bft) 95,74 %
27.07.2019 11:52 27,3 C 30,6 C 29,4 C 72 % 1002,6 hPa 0,0 l/m 2 min 0 min 575 W/m 9,7 km/h (2 Bft) 95,83 %
27.07.2019 11:54 27,3 C 30,6 C 28,3 C 71 % 1002,6 hPa 0,0 l/m 2 min 0 min 561 W/m 9,7 km/h (2 Bft) 95,74 %
27.07.2019 11:56 27,4 C 30,0 C 28,3 C 71 % 1002,6 hPa 0,0 l/m 2 min 0 min 591 W/m 9,7 km/h (2 Bft) 97,87 %
27.07.2019 11:58 27,4 C 30,0 C 28,9 C 71 % 1002,7 hPa 0,0 l/m 2 min 0 min 687 W/m 9,7 km/h (2 Bft) 97,87 %
27.07.2019 12:00 27,4 C 28,3 C 28,3 C 71 % 1002,7 hPa 0,0 l/m 2 min 0 min 678 W/m 12,9 km/h (3 Bft) 97,62 %
27.07.2019 12:02 27,4 C 27,8 C 28,3 C 71 % 1002,7 hPa 0,0 l/m 0 min 0 min 361 W/m 9,7 km/h (2 Bft) 98,00 %
27.07.2019 12:04 27,4 C 28,3 C 28,3 C 71 % 1002,7 hPa 0,0 l/m 2 min 0 min 412 W/m 9,7 km/h (2 Bft) 97,87 %
27.07.2019 12:08 27,3 C 28,3 C 28,3 C 71 % 1002,6 hPa 0,0 l/m 4 min 0 min 402 W/m 12,9 km/h (3 Bft) 94,74 %
27.07.2019 12:10 27,3 C 28,3 C 28,3 C 71 % 1002,5 hPa 0,0 l/m 0 min 0 min 387 W/m 12,9 km/h (3 Bft) 97,87 %
27.07.2019 12:12 27,3 C 28,9 C 28,3 C 70 % 1002,5 hPa 0,0 l/m 2 min 0 min 541 W/m 6,4 km/h (2 Bft) 97,87 %
27.07.2019 12:14 27,3 C 30,6 C 29,4 C 71 % 1002,6 hPa 0,0 l/m 2 min 0 min 580 W/m 9,7 km/h (2 Bft) 97,62 %
27.07.2019 12:16 27,3 C 31,1 C 30,0 C 71 % 1002,6 hPa 0,0 l/m 2 min 0 min 777 W/m 12,9 km/h (3 Bft) 97,87 %
27.07.2019 12:18 27,3 C 30,6 C 29,4 C 71 % 1002,6 hPa 0,0 l/m 2 min 0 min 708 W/m 16,1 km/h (3 Bft) 97,87 %
27.07.2019 12:20 27,2 C 29,4 C 28,9 C 71 % 1002,6 hPa 0,0 l/m 2 min 0 min 607 W/m 16,1 km/h (3 Bft) 97,87 %
27.07.2019 12:22 27,2 C 30,6 C 30,6 C 71 % 1002,5 hPa 0,0 l/m 2 min 0 min 692 W/m 9,7 km/h (2 Bft) 100,00 %
27.07.2019 12:24 27,2 C 30,0 C 30,6 C 71 % 1002,6 hPa 0,0 l/m 2 min 0 min 742 W/m 12,9 km/h (3 Bft) 100,00 %
27.07.2019 12:26 27,3 C 30,6 C 30,6 C 71 % 1002,6 hPa 0,0 l/m 2 min 0 min 659 W/m 9,7 km/h (2 Bft) 100,00 %
27.07.2019 12:28 27,3 C 30,6 C 30,6 C 71 % 1002,6 hPa 0,0 l/m 2 min 0 min 661 W/m 16,1 km/h (3 Bft) 97,67 %
27.07.2019 12:30 27,3 C 30,6 C 30,0 C 71 % 1002,7 hPa 0,0 l/m 2 min 0 min 605 W/m 12,9 km/h (3 Bft) 100,00 %
27.07.2019 12:32 27,3 C 30,6 C 30,0 C 70 % 1002,7 hPa 0,0 l/m 2 min 0 min 594 W/m 9,7 km/h (2 Bft) 100,00 %
27.07.2019 12:34 27,4 C 31,1 C 30,6 C 70 % 1002,7 hPa 0,0 l/m 2 min 0 min 719 W/m 12,9 km/h (3 Bft) 100,00 %
27.07.2019 12:36 27,4 C 31,1 C 31,1 C 71 % 1002,7 hPa 0,0 l/m 2 min 0 min 788 W/m 16,1 km/h (3 Bft) 100,00 %
27.07.2019 12:38 27,4 C 31,7 C 31,1 C 70 % 1002,7 hPa 0,0 l/m 2 min 0 min 704 W/m 6,4 km/h (2 Bft) 100,00 %
27.07.2019 12:40 27,5 C 30,6 C 29,4 C 69 % 1002,7 hPa 0,0 l/m 2 min 0 min 532 W/m 12,9 km/h (3 Bft) 100,00 %
27.07.2019 12:42 27,5 C 30,0 C 28,9 C 70 % 1002,6 hPa 0,0 l/m 2 min 0 min 445 W/m 12,9 km/h (3 Bft) 100,00 %
27.07.2019 12:44 27,5 C 28,9 C 28,3 C 69 % 1002,7 hPa 0,0 l/m 2 min 0 min 532 W/m 19,3 km/h (3 Bft) 100,00 %
27.07.2019 12:46 27,4 C 28,9 C 27,8 C 69 % 1002,6 hPa 0,0 l/m 0 min 0 min 376 W/m 6,4 km/h (2 Bft) 100,00 %
27.07.2019 12:48 27,4 C 28,3 C 27,2 C 70 % 1002,7 hPa 0,0 l/m 0 min 0 min 330 W/m 12,9 km/h (3 Bft) 100,00 %
27.07.2019 12:50 27,4 C 27,8 C 27,2 C 70 % 1002,7 hPa 0,0 l/m 0 min 0 min 312 W/m 16,1 km/h (3 Bft) 100,00 %
27.07.2019 12:52 27,3 C 27,2 C 26,7 C 70 % 1002,7 hPa 0,0 l/m 0 min 0 min 308 W/m 12,9 km/h (3 Bft) 97,87 %
27.07.2019 12:54 27,3 C 27,8 C 26,7 C 70 % 1002,7 hPa 0,0 l/m 0 min 0 min 319 W/m 12,9 km/h (3 Bft) 100,00 %
27.07.2019 12:56 27,2 C 27,2 C 26,7 C 70 % 1002,6 hPa 0,0 l/m 0 min 0 min 316 W/m 12,9 km/h (3 Bft) 100,00 %
27.07.2019 12:58 27,2 C 26,7 C 26,1 C 70 % 1002,6 hPa 0,0 l/m 0 min 0 min 313 W/m 19,3 km/h (3 Bft) 100,00 %
27.07.2019 13:00 27,1 C 27,2 C 26,7 C 70 % 1002,6 hPa 0,0 l/m 0 min 0 min 320 W/m 9,7 km/h (2 Bft) 100,00 %
27.07.2019 13:02 27,1 C 26,7 C 26,7 C 70 % 1002,6 hPa 0,0 l/m 0 min 0 min 323 W/m 12,9 km/h (3 Bft) 100,00 %
27.07.2019 13:04 27,0 C 27,2 C 26,7 C 70 % 1002,6 hPa 0,0 l/m 0 min 0 min 348 W/m 9,7 km/h (2 Bft) 100,00 %
27.07.2019 13:06 26,9 C 27,8 C 27,2 C 70 % 1002,6 hPa 0,0 l/m 2 min 0 min 451 W/m 6,4 km/h (2 Bft) 100,00 %
27.07.2019 13:08 26,9 C 28,3 C 27,2 C 71 % 1002,6 hPa 0,0 l/m 2 min 0 min 470 W/m 12,9 km/h (3 Bft) 97,87 %
27.07.2019 13:10 26,9 C 28,3 C 27,2 C 71 % 1002,6 hPa 0,0 l/m 2 min 0 min 487 W/m 6,4 km/h (2 Bft) 97,87 %
27.07.2019 13:12 26,8 C 28,9 C 27,8 C 71 % 1002,5 hPa 0,0 l/m 2 min 0 min 445 W/m 9,7 km/h (2 Bft) 100,00 %
27.07.2019 13:14 26,8 C 28,9 C 27,8 C 71 % 1002,5 hPa 0,0 l/m 2 min 0 min 472 W/m 9,7 km/h (2 Bft) 100,00 %
27.07.2019 13:16 26,8 C 30,6 C 28,9 C 71 % 1002,6 hPa 0,0 l/m 2 min 0 min 644 W/m 12,9 km/h (3 Bft) 100,00 %
27.07.2019 13:18 26,9 C 30,6 C 29,4 C 71 % 1002,5 hPa 0,0 l/m 2 min 0 min 678 W/m 12,9 km/h (3 Bft) 100,00 %
27.07.2019 13:20 26,9 C 30,0 C 29,4 C 71 % 1002,5 hPa 0,0 l/m 2 min 0 min 544 W/m 9,7 km/h (2 Bft) 100,00 %
27.07.2019 13:22 26,9 C 28,9 C 28,3 C 71 % 1002,5 hPa 0,0 l/m 2 min 0 min 431 W/m 9,7 km/h (2 Bft) 100,00 %
27.07.2019 13:24 27,0 C 28,3 C 27,8 C 71 % 1002,5 hPa 0,0 l/m 0 min 0 min 393 W/m 9,7 km/h (2 Bft) 100,00 %
27.07.2019 13:26 27,0 C 28,9 C 27,8 C 72 % 1002,5 hPa 0,0 l/m 0 min 0 min 338 W/m 6,4 km/h (2 Bft) 100,00 %
27.07.2019 13:28 27,1 C 28,9 C 27,8 C 72 % 1002,5 hPa 0,0 l/m 0 min 0 min 345 W/m 3,2 km/h (1 Bft) 100,00 %
27.07.2019 13:30 27,1 C 28,3 C 27,8 C 71 % 1002,5 hPa 0,0 l/m 0 min 0 min 384 W/m 9,7 km/h (2 Bft) 100,00 %
27.07.2019 13:32 27,1 C 27,8 C 27,8 C 71 % 1002,6 hPa 0,0 l/m 0 min 0 min 356 W/m 12,9 km/h (3 Bft) 100,00 %
27.07.2019 13:34 27,1 C 27,8 C 27,2 C 71 % 1002,6 hPa 0,0 l/m 0 min 0 min 329 W/m 9,7 km/h (2 Bft) 97,62 %
27.07.2019 13:36 27,1 C 27,8 C 27,2 C 70 % 1002,5 hPa 0,0 l/m 0 min 0 min 330 W/m 9,7 km/h (2 Bft) 93,62 %
27.07.2019 13:38 27,1 C 27,2 C 27,2 C 70 % 1002,5 hPa 0,0 l/m 0 min 0 min 340 W/m 19,3 km/h (3 Bft) 98,00 %
27.07.2019 13:40 27,1 C 27,8 C 27,2 C 70 % 1002,5 hPa 0,0 l/m 0 min 0 min 347 W/m 12,9 km/h (3 Bft) 100,00 %
27.07.2019 13:42 27,1 C 27,8 C 27,2 C 71 % 1002,5 hPa 0,0 l/m 0 min 0 min 354 W/m 12,9 km/h (3 Bft) 100,00 %
27.07.2019 13:44 27,1 C 27,8 C 27,2 C 70 % 1002,5 hPa 0,0 l/m 0 min 0 min 362 W/m 12,9 km/h (3 Bft) 95,74 %
27.07.2019 13:46 27,1 C 28,3 C 27,8 C 71 % 1002,5 hPa 0,0 l/m 0 min 0 min 401 W/m 12,9 km/h (3 Bft) 95,83 %
27.07.2019 13:48 27,0 C 27,8 C 27,2 C 71 % 1002,5 hPa 0,0 l/m 2 min 0 min 422 W/m 16,1 km/h (3 Bft) 95,74 %
27.07.2019 13:50 27,0 C 28,3 C 27,2 C 71 % 1002,4 hPa 0,0 l/m 2 min 0 min 428 W/m 9,7 km/h (2 Bft) 95,35 %
27.07.2019 13:52 27,0 C 28,3 C 27,2 C 71 % 1002,4 hPa 0,0 l/m 2 min 0 min 420 W/m 12,9 km/h (3 Bft) 96,00 %
27.07.2019 13:54 27,0 C 28,3 C 27,2 C 71 % 1002,4 hPa 0,0 l/m 0 min 0 min 374 W/m 9,7 km/h (2 Bft) 93,48 %
27.07.2019 13:56 27,1 C 28,3 C 27,8 C 71 % 1002,4 hPa 0,0 l/m 0 min 0 min 335 W/m 12,9 km/h (3 Bft) 91,84 %
27.07.2019 13:58 27,1 C 27,8 C 27,2 C 71 % 1002,5 hPa 0,0 l/m 0 min 0 min 299 W/m 9,7 km/h (2 Bft) 93,48 %
27.07.2019 14:00 27,1 C 27,2 C 27,2 C 71 % 1002,5 hPa 0,0 l/m 0 min 0 min 292 W/m 16,1 km/h (3 Bft) 97,67 %
27.07.2019 14:02 27,1 C 27,2 C 26,7 C 71 % 1002,5 hPa 0,0 l/m 0 min 0 min 297 W/m 19,3 km/h (3 Bft) 94,00 %
27.07.2019 14:04 27,1 C 27,2 C 26,7 C 71 % 1002,5 hPa 0,0 l/m 0 min 0 min 308 W/m 12,9 km/h (3 Bft) 95,83 %
27.07.2019 14:06 27,0 C 27,2 C 26,7 C 71 % 1002,4 hPa 0,0 l/m 0 min 0 min 314 W/m 12,9 km/h (3 Bft) 95,74 %
27.07.2019 14:08 27,0 C 27,2 C 26,7 C 71 % 1002,4 hPa 0,0 l/m 0 min 0 min 303 W/m 6,4 km/h (2 Bft) 95,74 %
27.07.2019 14:10 27,0 C 27,2 C 26,7 C 71 % 1002,4 hPa 0,0 l/m 0 min 0 min 272 W/m 16,1 km/h (3 Bft) 95,65 %
27.07.2019 14:12 27,0 C 26,7 C 26,7 C 71 % 1002,5 hPa 0,0 l/m 0 min 0 min 247 W/m 16,1 km/h (3 Bft) 95,74 %
27.07.2019 14:14 26,9 C 26,7 C 26,1 C 71 % 1002,5 hPa 0,0 l/m 0 min 0 min 236 W/m 19,3 km/h (3 Bft) 93,62 %
27.07.2019 14:16 26,9 C 26,1 C 26,1 C 71 % 1002,4 hPa 0,0 l/m 0 min 0 min 231 W/m 12,9 km/h (3 Bft) 95,74 %
27.07.2019 14:18 26,8 C 26,1 C 26,1 C 71 % 1002,5 hPa 0,0 l/m 0 min 0 min 252 W/m 19,3 km/h (3 Bft) 95,24 %
27.07.2019 14:20 26,8 C 26,7 C 26,1 C 71 % 1002,4 hPa 0,0 l/m 0 min 0 min 270 W/m 16,1 km/h (3 Bft) 96,00 %
27.07.2019 14:22 26,7 C 26,1 C 26,1 C 72 % 1002,4 hPa 0,0 l/m 0 min 0 min 314 W/m 22,5 km/h (4 Bft) 93,62 %
27.07.2019 14:24 26,7 C 26,7 C 26,1 C 72 % 1002,4 hPa 0,0 l/m 0 min 0 min 396 W/m 12,9 km/h (3 Bft) 93,75 %
27.07.2019 14:26 26,6 C 26,7 C 26,7 C 72 % 1002,4 hPa 0,0 l/m 2 min 0 min 465 W/m 19,3 km/h (3 Bft) 95,74 %
27.07.2019 14:28 26,6 C 27,2 C 26,7 C 72 % 1002,3 hPa 0,0 l/m 2 min 0 min 461 W/m 12,9 km/h (3 Bft) 95,74 %
27.07.2019 14:30 26,6 C 27,8 C 27,2 C 73 % 1002,3 hPa 0,0 l/m 2 min 0 min 458 W/m 9,7 km/h (2 Bft) 92,86 %
27.07.2019 14:32 26,6 C 27,8 C 27,2 C 73 % 1002,4 hPa 0,0 l/m 2 min 0 min 480 W/m 12,9 km/h (3 Bft) 96,00 %
27.07.2019 14:34 26,6 C 27,2 C 27,2 C 73 % 1002,4 hPa 0,0 l/m 2 min 0 min 490 W/m 29,0 km/h (5 Bft) 93,75 %
27.07.2019 14:36 26,5 C 27,2 C 27,2 C 73 % 1002,3 hPa 0,0 l/m 2 min 0 min 413 W/m 16,1 km/h (3 Bft) 97,87 %
27.07.2019 14:38 26,4 C 26,7 C 26,1 C 73 % 1002,3 hPa 0,0 l/m 0 min 0 min 341 W/m 19,3 km/h (3 Bft) 97,67 %
27.07.2019 14:40 26,4 C 26,7 C 26,1 C 73 % 1002,2 hPa 0,0 l/m 0 min 0 min 302 W/m 16,1 km/h (3 Bft) 97,96 %
27.07.2019 14:42 26,4 C 26,7 C 26,1 C 73 % 1002,2 hPa 0,0 l/m 0 min 0 min 332 W/m 16,1 km/h (3 Bft) 97,96 %
27.07.2019 14:44 26,3 C 26,7 C 26,1 C 73 % 1002,2 hPa 0,0 l/m 0 min 0 min 305 W/m 12,9 km/h (3 Bft) 97,87 %
27.07.2019 14:46 26,3 C 26,1 C 26,1 C 73 % 1002,2 hPa 0,0 l/m 0 min 0 min 301 W/m 12,9 km/h (3 Bft) 97,83 %
27.07.2019 14:48 26,3 C 26,7 C 26,1 C 74 % 1002,1 hPa 0,0 l/m 0 min 0 min 310 W/m 12,9 km/h (3 Bft) 97,67 %
27.07.2019 14:50 26,2 C 26,1 C 25,6 C 74 % 1002,2 hPa 0,0 l/m 0 min 0 min 316 W/m 12,9 km/h (3 Bft) 97,87 %
27.07.2019 14:52 26,2 C 26,1 C 25,6 C 74 % 1002,1 hPa 0,0 l/m 0 min 0 min 324 W/m 12,9 km/h (3 Bft) 95,92 %
27.07.2019 14:54 26,2 C 27,2 C 26,1 C 75 % 1002,1 hPa 0,0 l/m 0 min 0 min 341 W/m 12,9 km/h (3 Bft) 97,96 %
27.07.2019 14:56 26,2 C 27,2 C 26,7 C 75 % 1002,1 hPa 0,0 l/m 0 min 0 min 361 W/m 6,4 km/h (2 Bft) 97,83 %
27.07.2019 14:58 26,2 C 27,8 C 26,7 C 75 % 1002,1 hPa 0,0 l/m 2 min 0 min 406 W/m 6,4 km/h (2 Bft) 97,67 %
27.07.2019 15:00 26,2 C 27,8 C 26,7 C 74 % 1002,1 hPa 0,0 l/m 2 min 0 min 453 W/m 16,1 km/h (3 Bft) 98,00 %
27.07.2019 15:02 26,2 C 29,4 C 27,2 C 74 % 1002,0 hPa 0,0 l/m 2 min 0 min 577 W/m 22,5 km/h (4 Bft) 97,92 %
27.07.2019 15:04 26,2 C 30,0 C 27,8 C 75 % 1002,0 hPa 0,0 l/m 2 min 0 min 870 W/m 19,3 km/h (3 Bft) 95,74 %
27.07.2019 15:06 26,2 C 29,4 C 27,2 C 74 % 1002,0 hPa 0,0 l/m 2 min 0 min 831 W/m 19,3 km/h (3 Bft) 97,87 %
27.07.2019 15:08 26,3 C 30,0 C 27,2 C 74 % 1001,9 hPa 0,0 l/m 2 min 0 min 767 W/m 16,1 km/h (3 Bft) 97,62 %
27.07.2019 15:10 26,3 C 30,0 C 27,8 C 74 % 1001,9 hPa 0,0 l/m 2 min 0 min 764 W/m 12,9 km/h (3 Bft) 98,00 %
27.07.2019 15:12 26,4 C 31,1 C 27,8 C 74 % 1001,9 hPa 0,0 l/m 2 min 0 min 641 W/m 9,7 km/h (2 Bft) 97,92 %
27.07.2019 15:14 26,6 C 32,2 C 28,3 C 74 % 1001,9 hPa 0,0 l/m 2 min 0 min 827 W/m 9,7 km/h (2 Bft) 97,87 %
27.07.2019 15:16 26,7 C 31,7 C 28,3 C 74 % 1001,9 hPa 0,0 l/m 2 min 0 min 761 W/m 6,4 km/h (2 Bft) 97,87 %
27.07.2019 15:18 26,7 C 31,7 C 28,3 C 73 % 1001,8 hPa 0,0 l/m 2 min 0 min 748 W/m 12,9 km/h (3 Bft) 97,62 %
27.07.2019 15:20 26,8 C 30,6 C 27,8 C 72 % 1001,9 hPa 0,0 l/m 2 min 0 min 666 W/m 19,3 km/h (3 Bft) 98,00 %
27.07.2019 15:22 26,9 C 30,6 C 27,8 C 72 % 1002,0 hPa 0,0 l/m 2 min 0 min 603 W/m 12,9 km/h (3 Bft) 97,87 %
27.07.2019 15:24 26,9 C 29,4 C 27,8 C 72 % 1002,0 hPa 0,0 l/m 2 min 0 min 582 W/m 16,1 km/h (3 Bft) 97,96 %
27.07.2019 15:26 27,0 C 29,4 C 27,8 C 72 % 1001,9 hPa 0,0 l/m 2 min 0 min 560 W/m 9,7 km/h (2 Bft) 93,62 %
27.07.2019 15:28 27,1 C 28,9 C 27,8 C 71 % 1002,0 hPa 0,0 l/m 2 min 0 min 459 W/m 16,1 km/h (3 Bft) 97,56 %
27.07.2019 15:30 27,1 C 28,9 C 27,2 C 71 % 1002,0 hPa 0,0 l/m 2 min 0 min 418 W/m 6,4 km/h (2 Bft) 97,87 %
27.07.2019 15:32 27,1 C 28,9 C 27,2 C 71 % 1001,9 hPa 0,0 l/m 2 min 0 min 400 W/m 6,4 km/h (2 Bft) 98,00 %
27.07.2019 15:34 27,1 C 28,3 C 27,2 C 72 % 1001,9 hPa 0,0 l/m 0 min 0 min 278 W/m 9,7 km/h (2 Bft) 97,87 %
27.07.2019 15:36 27,2 C 27,8 C 27,2 C 72 % 1001,9 hPa 0,0 l/m 0 min 0 min 208 W/m 9,7 km/h (2 Bft) 100,00 %
27.07.2019 15:38 27,2 C 27,2 C 26,7 C 72 % 1002,0 hPa 0,0 l/m 0 min 0 min 184 W/m 9,7 km/h (2 Bft) 100,00 %
27.07.2019 15:40 27,1 C 26,7 C 26,7 C 71 % 1001,8 hPa 0,0 l/m 0 min 0 min 170 W/m 6,4 km/h (2 Bft) 100,00 %
27.07.2019 15:42 27,1 C 26,7 C 26,1 C 71 % 1001,8 hPa 0,0 l/m 0 min 0 min 160 W/m 6,4 km/h (2 Bft) 100,00 %
27.07.2019 15:44 27,1 C 26,7 C 26,1 C 72 % 1001,8 hPa 0,0 l/m 0 min 0 min 153 W/m 6,4 km/h (2 Bft) 100,00 %
27.07.2019 15:47 27,1 C 26,1 C 26,1 C 72 % 1001,8 hPa 0,0 l/m 0 min 0 min 151 W/m 12,9 km/h (3 Bft) 100,00 %
27.07.2019 15:48 27,0 C 26,1 C 26,1 C 71 % 1001,8 hPa 0,0 l/m 0 min 0 min 151 W/m 6,4 km/h (2 Bft) 100,00 %
27.07.2019 15:50 27,0 C 26,1 C 26,1 C 71 % 1001,8 hPa 0,0 l/m 0 min 0 min 149 W/m 12,9 km/h (3 Bft) 100,00 %
27.07.2019 15:52 26,9 C 26,1 C 25,6 C 71 % 1001,8 hPa 0,0 l/m 0 min 0 min 142 W/m 12,9 km/h (3 Bft) 100,00 %
27.07.2019 15:54 26,9 C 26,1 C 26,1 C 71 % 1001,8 hPa 0,0 l/m 0 min 0 min 142 W/m 6,4 km/h (2 Bft) 100,00 %
27.07.2019 15:56 26,8 C 26,1 C 26,1 C 72 % 1001,8 hPa 0,0 l/m 0 min 0 min 148 W/m 6,4 km/h (2 Bft) 100,00 %
27.07.2019 15:58 26,8 C 25,6 C 25,6 C 72 % 1001,8 hPa 0,0 l/m 0 min 0 min 153 W/m 12,9 km/h (3 Bft) 100,00 %
27.07.2019 16:00 26,7 C 26,1 C 25,6 C 73 % 1001,9 hPa 0,0 l/m 0 min 0 min 155 W/m 6,4 km/h (2 Bft) 100,00 %
27.07.2019 16:02 26,7 C 25,6 C 25,6 C 72 % 1001,9 hPa 0,0 l/m 0 min 0 min 168 W/m 9,7 km/h (2 Bft) 97,87 %
27.07.2019 16:04 26,6 C 25,6 C 25,6 C 72 % 1001,9 hPa 0,0 l/m 0 min 0 min 182 W/m 12,9 km/h (3 Bft) 100,00 %
27.07.2019 16:06 26,6 C 25,6 C 25,6 C 72 % 1001,8 hPa 0,0 l/m 0 min 0 min 186 W/m 9,7 km/h (2 Bft) 100,00 %
27.07.2019 16:08 26,5 C 26,1 C 25,6 C 73 % 1001,9 hPa 0,0 l/m 0 min 0 min 173 W/m 9,7 km/h (2 Bft) 100,00 %
27.07.2019 16:10 26,4 C 26,1 C 25,6 C 73 % 1001,8 hPa 0,0 l/m 0 min 0 min 151 W/m 6,4 km/h (2 Bft) 100,00 %
27.07.2019 16:12 26,4 C 25,6 C 25,6 C 73 % 1001,9 hPa 0,0 l/m 0 min 0 min 141 W/m 6,4 km/h (2 Bft) 100,00 %
27.07.2019 16:14 26,4 C 25,6 C 25,6 C 73 % 1001,8 hPa 0,0 l/m 0 min 2 min 139 W/m 16,1 km/h (3 Bft) 100,00 %
27.07.2019 16:16 26,3 C 25,6 C 25,6 C 73 % 1001,9 hPa 0,0 l/m 0 min 0 min 144 W/m 12,9 km/h (3 Bft) 95,74 %
27.07.2019 16:18 26,3 C 25,6 C 25,6 C 73 % 1001,8 hPa 0,0 l/m 0 min 0 min 154 W/m 12,9 km/h (3 Bft) 97,87 %
27.07.2019 16:20 26,2 C 25,6 C 25,6 C 73 % 1001,8 hPa 0,0 l/m 0 min 0 min 171 W/m 12,9 km/h (3 Bft) 97,87 %
27.07.2019 16:22 26,2 C 25,6 C 25,6 C 73 % 1001,7 hPa 0,0 l/m 0 min 0 min 192 W/m 12,9 km/h (3 Bft) 95,74 %
27.07.2019 16:24 26,2 C 26,1 C 25,6 C 74 % 1001,7 hPa 0,0 l/m 0 min 0 min 188 W/m 9,7 km/h (2 Bft) 97,83 %
27.07.2019 16:26 26,1 C 26,1 C 25,6 C 74 % 1001,8 hPa 0,0 l/m 0 min 0 min 174 W/m 9,7 km/h (2 Bft) 97,87 %
27.07.2019 16:28 26,1 C 25,6 C 25,6 C 73 % 1001,8 hPa 0,0 l/m 0 min 0 min 147 W/m 6,4 km/h (2 Bft) 97,87 %
27.07.2019 16:30 26,1 C 25,6 C 25,6 C 74 % 1001,8 hPa 0,0 l/m 0 min 0 min 110 W/m 6,4 km/h (2 Bft) 97,87 %
27.07.2019 16:32 26,1 C 24,4 C 25,6 C 74 % 1001,9 hPa 0,0 l/m 0 min 2 min 85 W/m 9,7 km/h (2 Bft) 95,83 %
27.07.2019 16:34 26,1 C 23,3 C 24,4 C 76 % 1001,9 hPa 0,0 l/m 0 min 2 min 77 W/m 6,4 km/h (2 Bft) 97,87 %
27.07.2019 16:36 26,1 C 23,3 C 24,4 C 75 % 1001,8 hPa 0,0 l/m 0 min 2 min 82 W/m 6,4 km/h (2 Bft) 95,65 %
27.07.2019 16:38 26,0 C 22,8 C 23,9 C 75 % 1001,8 hPa 0,0 l/m 0 min 2 min 90 W/m 12,9 km/h (3 Bft) 97,87 %
27.07.2019 16:40 26,0 C 23,9 C 23,3 C 76 % 1001,9 hPa 0,0 l/m 0 min 2 min 98 W/m 6,4 km/h (2 Bft) 97,87 %
27.07.2019 16:42 25,9 C 23,9 C 23,3 C 76 % 1001,9 hPa 0,0 l/m 0 min 2 min 100 W/m 6,4 km/h (2 Bft) 97,87 %
27.07.2019 16:44 25,9 C 23,9 C 23,3 C 76 % 1001,9 hPa 0,0 l/m 0 min 0 min 98 W/m 6,4 km/h (2 Bft) 93,62 %
27.07.2019 16:46 25,8 C 23,9 C 23,9 C 77 % 1001,9 hPa 0,0 l/m 0 min 2 min 92 W/m 6,4 km/h (2 Bft) 100,00 %
27.07.2019 16:48 25,8 C 23,9 C 23,3 C 77 % 1001,8 hPa 0,0 l/m 0 min 2 min 90 W/m 6,4 km/h (2 Bft) 97,87 %
27.07.2019 16:50 25,7 C 23,9 C 23,9 C 77 % 1001,9 hPa 0,0 l/m 0 min 2 min 90 W/m 6,4 km/h (2 Bft) 93,62 %
27.07.2019 16:52 25,7 C 23,9 C 23,9 C 77 % 1001,8 hPa 0,0 l/m 0 min 0 min 89 W/m 6,4 km/h (2 Bft) 97,87 %
27.07.2019 16:54 25,6 C 23,9 C 23,9 C 77 % 1001,7 hPa 0,0 l/m 0 min 2 min 84 W/m 6,4 km/h (2 Bft) 97,87 %
27.07.2019 16:56 25,6 C 23,3 C 23,9 C 78 % 1001,8 hPa 0,0 l/m 0 min 2 min 83 W/m 6,4 km/h (2 Bft) 95,74 %
27.07.2019 16:58 25,5 C 23,3 C 23,9 C 78 % 1001,8 hPa 0,0 l/m 0 min 0 min 93 W/m 9,7 km/h (2 Bft) 95,74 %
27.07.2019 17:00 25,4 C 23,3 C 24,4 C 78 % 1001,8 hPa 0,0 l/m 0 min 0 min 108 W/m 6,4 km/h (2 Bft) 97,87 %
27.07.2019 17:02 25,4 C 23,9 C 24,4 C 78 % 1001,9 hPa 0,0 l/m 0 min 0 min 117 W/m 3,2 km/h (1 Bft) 97,87 %
27.07.2019 17:04 25,4 C 24,4 C 24,4 C 78 % 1001,8 hPa 0,0 l/m 0 min 0 min 115 W/m 9,7 km/h (2 Bft) 97,83 %
27.07.2019 17:06 25,3 C 24,4 C 24,4 C 78 % 1001,9 hPa 0,0 l/m 0 min 0 min 112 W/m 9,7 km/h (2 Bft) 97,87 %
27.07.2019 17:08 25,3 C 24,4 C 24,4 C 78 % 1001,9 hPa 0,0 l/m 0 min 0 min 113 W/m 9,7 km/h (2 Bft) 97,87 %
27.07.2019 17:10 25,3 C 24,4 C 24,4 C 77 % 1001,8 hPa 0,0 l/m 0 min 0 min 109 W/m 6,4 km/h (2 Bft) 97,87 %
27.07.2019 17:12 25,2 C 25,0 C 24,4 C 77 % 1001,9 hPa 0,0 l/m 0 min 0 min 102 W/m 6,4 km/h (2 Bft) 97,87 %
27.07.2019 17:14 25,2 C 25,0 C 24,4 C 77 % 1001,9 hPa 0,0 l/m 0 min 0 min 90 W/m 6,4 km/h (2 Bft) 95,74 %
27.07.2019 17:16 25,2 C 24,4 C 24,4 C 77 % 1002,0 hPa 0,0 l/m 0 min 0 min 75 W/m 9,7 km/h (2 Bft) 97,83 %
27.07.2019 17:18 25,2 C 24,4 C 24,4 C 77 % 1002,1 hPa 0,0 l/m 0 min 0 min 62 W/m 16,1 km/h (3 Bft) 97,87 %
27.07.2019 17:20 25,1 C 23,9 C 24,4 C 77 % 1002,1 hPa 0,0 l/m 0 min 0 min 58 W/m 16,1 km/h (3 Bft) 97,87 %
27.07.2019 17:22 25,1 C 23,9 C 24,4 C 77 % 1002,1 hPa 0,0 l/m 0 min 0 min 58 W/m 19,3 km/h (3 Bft) 97,87 %
27.07.2019 17:24 25,1 C 23,9 C 24,4 C 77 % 1002,1 hPa 0,0 l/m 0 min 0 min 59 W/m 16,1 km/h (3 Bft) 95,74 %
27.07.2019 17:26 25,1 C 23,9 C 23,9 C 77 % 1002,2 hPa 0,0 l/m 0 min 0 min 53 W/m 25,7 km/h (4 Bft) 97,87 %
27.07.2019 17:30 24,9 C 23,3 C 23,3 C 77 % 1002,2 hPa 0,0 l/m 0 min 0 min 48 W/m 22,5 km/h (4 Bft) 96,30 %
27.07.2019 17:32 24,9 C 23,3 C 23,3 C 77 % 1002,3 hPa 0,0 l/m 0 min 0 min 49 W/m 25,7 km/h (4 Bft) 97,87 %
27.07.2019 17:34 24,9 C 23,3 C 23,3 C 77 % 1002,3 hPa 0,0 l/m 0 min 0 min 44 W/m 19,3 km/h (3 Bft) 97,83 %
27.07.2019 17:36 24,8 C 23,3 C 23,3 C 78 % 1002,3 hPa 0,0 l/m 0 min 0 min 39 W/m 9,7 km/h (2 Bft) 93,62 %
27.07.2019 17:38 24,8 C 23,3 C 23,3 C 78 % 1002,4 hPa 0,0 l/m 0 min 0 min 37 W/m 12,9 km/h (3 Bft) 97,87 %
27.07.2019 17:40 24,7 C 23,3 C 23,3 C 78 % 1002,4 hPa 0,0 l/m 0 min 0 min 36 W/m 12,9 km/h (3 Bft) 97,87 %
27.07.2019 17:42 24,7 C 23,3 C 23,3 C 78 % 1002,4 hPa 0,0 l/m 0 min 0 min 35 W/m 19,3 km/h (3 Bft) 97,87 %
27.07.2019 17:44 24,6 C 23,3 C 23,3 C 78 % 1002,4 hPa 0,0 l/m 0 min 0 min 33 W/m 9,7 km/h (2 Bft) 97,87 %
27.07.2019 17:46 24,6 C 23,3 C 23,3 C 78 % 1002,4 hPa 0,0 l/m 0 min 0 min 33 W/m 12,9 km/h (3 Bft) 95,65 %
27.07.2019 17:48 24,6 C 23,3 C 23,3 C 78 % 1002,4 hPa 0,0 l/m 0 min 0 min 33 W/m 9,7 km/h (2 Bft) 97,87 %
27.07.2019 17:50 24,5 C 22,8 C 23,3 C 78 % 1002,5 hPa 0,0 l/m 0 min 0 min 35 W/m 16,1 km/h (3 Bft) 100,00 %
27.07.2019 17:52 24,4 C 23,3 C 23,3 C 78 % 1002,4 hPa 0,0 l/m 0 min 0 min 37 W/m 9,7 km/h (2 Bft) 100,00 %
27.07.2019 17:54 24,4 C 23,3 C 22,8 C 79 % 1002,3 hPa 0,0 l/m 0 min 0 min 39 W/m 6,4 km/h (2 Bft) 97,87 %
27.07.2019 17:56 24,4 C 23,3 C 22,8 C 79 % 1002,3 hPa 0,0 l/m 0 min 0 min 38 W/m 6,4 km/h (2 Bft) 97,87 %
27.07.2019 17:58 24,3 C 23,3 C 22,8 C 79 % 1002,3 hPa 0,0 l/m 0 min 0 min 36 W/m 9,7 km/h (2 Bft) 97,83 %
27.07.2019 18:00 24,3 C 22,8 C 22,8 C 79 % 1002,3 hPa 0,0 l/m 0 min 0 min 32 W/m 6,4 km/h (2 Bft) 97,87 %
27.07.2019 18:02 24,3 C 22,8 C 22,8 C 79 % 1002,4 hPa 0,0 l/m 0 min 0 min 31 W/m 6,4 km/h (2 Bft) 97,92 %
27.07.2019 18:04 24,2 C 22,8 C 23,3 C 79 % 1002,4 hPa 0,0 l/m 0 min 0 min 29 W/m 6,4 km/h (2 Bft) 97,87 %
27.07.2019 18:08 24,2 C 22,8 C 23,3 C 79 % 1002,3 hPa 0,0 l/m 0 min 0 min 28 W/m 9,7 km/h (2 Bft) 96,77 %
27.07.2019 18:10 24,2 C 22,8 C 23,3 C 79 % 1002,2 hPa 0,0 l/m 0 min 0 min 36 W/m 6,4 km/h (2 Bft) 97,87 %
27.07.2019 18:12 24,1 C 22,8 C 23,3 C 79 % 1002,2 hPa 0,0 l/m 0 min 0 min 36 W/m 9,7 km/h (2 Bft) 97,87 %
27.07.2019 18:14 24,1 C 22,8 C 23,3 C 79 % 1002,2 hPa 0,0 l/m 0 min 0 min 35 W/m 6,4 km/h (2 Bft) 97,87 %
27.07.2019 18:16 24,1 C 22,8 C 23,3 C 79 % 1002,1 hPa 0,0 l/m 0 min 0 min 37 W/m 6,4 km/h (2 Bft) 97,87 %
27.07.2019 18:18 24,0 C 22,8 C 22,8 C 79 % 1002,0 hPa 0,0 l/m 0 min 0 min 39 W/m 6,4 km/h (2 Bft) 97,87 %
27.07.2019 18:20 24,0 C 22,8 C 22,8 C 79 % 1002,0 hPa 0,0 l/m 0 min 0 min 39 W/m 9,7 km/h (2 Bft) 97,83 %
27.07.2019 18:22 23,9 C 22,8 C 22,8 C 79 % 1002,0 hPa 0,0 l/m 0 min 0 min 40 W/m 9,7 km/h (2 Bft) 93,62 %
27.07.2019 18:24 23,9 C 22,8 C 22,8 C 79 % 1001,8 hPa 0,0 l/m 0 min 0 min 42 W/m 9,7 km/h (2 Bft) 93,62 %
27.07.2019 18:26 23,9 C 22,8 C 22,8 C 80 % 1001,8 hPa 0,0 l/m 0 min 0 min 45 W/m 6,4 km/h (2 Bft) 97,87 %
27.07.2019 18:28 23,9 C 22,8 C 22,8 C 80 % 1001,8 hPa 0,0 l/m 0 min 0 min 46 W/m 6,4 km/h (2 Bft) 97,87 %
27.07.2019 18:30 23,8 C 22,8 C 22,8 C 80 % 1001,7 hPa 0,0 l/m 0 min 0 min 44 W/m 6,4 km/h (2 Bft) 95,74 %
27.07.2019 18:32 23,8 C 22,8 C 22,8 C 80 % 1001,7 hPa 0,0 l/m 0 min 0 min 45 W/m 9,7 km/h (2 Bft) 97,83 %
27.07.2019 18:34 23,8 C 22,8 C 22,8 C 80 % 1001,8 hPa 0,0 l/m 0 min 0 min 44 W/m 12,9 km/h (3 Bft) 97,87 %
27.07.2019 18:36 23,8 C 22,8 C 22,8 C 80 % 1001,7 hPa 0,0 l/m 0 min 0 min 42 W/m 6,4 km/h (2 Bft) 97,87 %
27.07.2019 18:38 23,7 C 22,8 C 22,8 C 80 % 1001,7 hPa 0,0 l/m 0 min 0 min 42 W/m 9,7 km/h (2 Bft) 97,87 %
27.07.2019 18:40 23,7 C 22,8 C 22,8 C 80 % 1001,7 hPa 0,0 l/m 0 min 0 min 47 W/m 9,7 km/h (2 Bft) 97,87 %
27.07.2019 18:42 23,7 C 22,8 C 22,8 C 80 % 1001,7 hPa 0,0 l/m 0 min 0 min 53 W/m 12,9 km/h (3 Bft) 95,74 %
27.07.2019 18:44 23,7 C 22,8 C 22,8 C 80 % 1001,5 hPa 0,0 l/m 0 min 0 min 57 W/m 9,7 km/h (2 Bft) 97,83 %
27.07.2019 18:46 23,7 C 22,8 C 22,8 C 81 % 1001,5 hPa 0,0 l/m 0 min 0 min 62 W/m 9,7 km/h (2 Bft) 97,87 %
27.07.2019 18:48 23,6 C 22,8 C 22,8 C 81 % 1001,4 hPa 0,0 l/m 0 min 0 min 63 W/m 9,7 km/h (2 Bft) 97,87 %
27.07.2019 18:50 23,6 C 22,8 C 22,8 C 81 % 1001,4 hPa 0,0 l/m 0 min 0 min 61 W/m 6,4 km/h (2 Bft) 100,00 %
27.07.2019 18:52 23,6 C 22,8 C 22,8 C 81 % 1001,4 hPa 0,0 l/m 0 min 0 min 56 W/m 9,7 km/h (2 Bft) 93,62 %
27.07.2019 18:54 23,6 C 22,8 C 22,8 C 82 % 1001,4 hPa 0,0 l/m 0 min 0 min 51 W/m 6,4 km/h (2 Bft) 97,87 %
27.07.2019 18:56 23,5 C 22,2 C 22,8 C 82 % 1001,3 hPa 0,0 l/m 0 min 0 min 49 W/m 6,4 km/h (2 Bft) 97,83 %
27.07.2019 18:58 23,5 C 22,2 C 22,8 C 82 % 1001,3 hPa 0,0 l/m 0 min 0 min 47 W/m 6,4 km/h (2 Bft) 97,87 %
27.07.2019 19:00 23,5 C 22,2 C 22,8 C 82 % 1001,3 hPa 0,0 l/m 0 min 0 min 48 W/m 6,4 km/h (2 Bft) 97,87 %
27.07.2019 19:02 23,4 C 22,2 C 22,2 C 83 % 1001,3 hPa 0,0 l/m 0 min 0 min 50 W/m 6,4 km/h (2 Bft) 95,74 %
27.07.2019 19:04 23,4 C 22,2 C 22,2 C 83 % 1001,4 hPa 0,0 l/m 0 min 0 min 53 W/m 6,4 km/h (2 Bft) 97,87 %
27.07.2019 19:06 23,4 C 22,2 C 22,2 C 83 % 1001,3 hPa 0,0 l/m 0 min 0 min 56 W/m 6,4 km/h (2 Bft) 97,83 %
27.07.2019 19:08 23,4 C 22,2 C 22,2 C 83 % 1001,4 hPa 0,0 l/m 0 min 0 min 58 W/m 9,7 km/h (2 Bft) 97,87 %
27.07.2019 19:10 23,4 C 22,2 C 22,8 C 84 % 1001,4 hPa 0,0 l/m 0 min 0 min 61 W/m 6,4 km/h (2 Bft) 95,74 %
27.07.2019 19:12 23,3 C 22,2 C 22,8 C 84 % 1001,4 hPa 0,0 l/m 0 min 0 min 62 W/m 6,4 km/h (2 Bft) 97,87 %
27.07.2019 19:14 23,3 C 22,2 C 22,8 C 84 % 1001,3 hPa 0,0 l/m 0 min 0 min 66 W/m 9,7 km/h (2 Bft) 95,74 %
27.07.2019 19:16 23,3 C 22,2 C 22,2 C 84 % 1001,3 hPa 0,0 l/m 0 min 0 min 68 W/m 6,4 km/h (2 Bft) 95,74 %
27.07.2019 19:18 23,3 C 22,2 C 22,2 C 84 % 1001,2 hPa 0,0 l/m 0 min 0 min 68 W/m 9,7 km/h (2 Bft) 97,83 %
27.07.2019 19:20 23,2 C 22,2 C 22,2 C 84 % 1001,2 hPa 0,0 l/m 0 min 0 min 67 W/m 3,2 km/h (1 Bft) 97,87 %
27.07.2019 19:22 23,2 C 22,2 C 22,2 C 84 % 1001,1 hPa 0,0 l/m 0 min 0 min 66 W/m 3,2 km/h (1 Bft) 97,87 %
27.07.2019 19:24 23,2 C 22,2 C 22,2 C 84 % 1001,2 hPa 0,0 l/m 0 min 0 min 65 W/m 6,4 km/h (2 Bft) 97,87 %
27.07.2019 19:26 23,2 C 22,2 C 22,2 C 85 % 1001,2 hPa 0,0 l/m 0 min 0 min 64 W/m 6,4 km/h (2 Bft) 97,87 %
27.07.2019 19:28 23,2 C 22,2 C 22,2 C 85 % 1001,3 hPa 0,0 l/m 0 min 0 min 63 W/m 9,7 km/h (2 Bft) 95,74 %
27.07.2019 19:30 23,1 C 22,2 C 22,2 C 85 % 1001,2 hPa 0,0 l/m 0 min 0 min 62 W/m 6,4 km/h (2 Bft) 97,83 %
27.07.2019 19:32 23,1 C 22,2 C 22,2 C 85 % 1001,3 hPa 0,0 l/m 0 min 0 min 62 W/m 6,4 km/h (2 Bft) 97,87 %
27.07.2019 19:34 23,1 C 22,2 C 22,2 C 85 % 1001,3 hPa 0,0 l/m 0 min 0 min 61 W/m 6,4 km/h (2 Bft) 100,00 %
27.07.2019 19:36 23,1 C 22,2 C 22,2 C 85 % 1001,3 hPa 0,0 l/m 0 min 0 min 60 W/m 6,4 km/h (2 Bft) 100,00 %
27.07.2019 19:38 23,0 C 22,2 C 22,2 C 85 % 1001,3 hPa 0,0 l/m 0 min 0 min 59 W/m 6,4 km/h (2 Bft) 100,00 %
27.07.2019 19:40 23,0 C 22,2 C 22,2 C 85 % 1001,3 hPa 0,0 l/m 0 min 0 min 58 W/m 3,2 km/h (1 Bft) 97,83 %
27.07.2019 19:42 23,0 C 22,2 C 22,2 C 85 % 1001,3 hPa 0,0 l/m 0 min 0 min 58 W/m 9,7 km/h (2 Bft) 100,00 %
27.07.2019 19:44 22,9 C 22,2 C 22,2 C 85 % 1001,3 hPa 0,0 l/m 0 min 0 min 56 W/m 6,4 km/h (2 Bft) 100,00 %
27.07.2019 19:46 23,0 C 22,2 C 22,2 C 85 % 1001,3 hPa 0,0 l/m 0 min 0 min 56 W/m 6,4 km/h (2 Bft) 97,87 %
27.07.2019 19:48 22,9 C 22,2 C 22,2 C 85 % 1001,3 hPa 0,0 l/m 0 min 0 min 56 W/m 0,0 km/h (0 Bft) 97,87 %
27.07.2019 19:50 22,9 C 22,2 C 22,2 C 85 % 1001,3 hPa 0,0 l/m 0 min 0 min 56 W/m 6,4 km/h (2 Bft) 97,87 %
27.07.2019 19:52 22,9 C 22,2 C 22,2 C 86 % 1001,4 hPa 0,0 l/m 0 min 0 min 54 W/m 6,4 km/h (2 Bft) 100,00 %
27.07.2019 19:54 22,9 C 22,2 C 22,2 C 86 % 1001,4 hPa 0,0 l/m 0 min 0 min 54 W/m 6,4 km/h (2 Bft) 100,00 %
27.07.2019 19:56 22,9 C 22,2 C 22,2 C 86 % 1001,4 hPa 0,0 l/m 0 min 0 min 54 W/m 6,4 km/h (2 Bft) 97,87 %
27.07.2019 19:58 22,9 C 22,2 C 22,2 C 86 % 1001,5 hPa 0,0 l/m 0 min 0 min 52 W/m 9,7 km/h (2 Bft) 100,00 %
27.07.2019 20:00 22,9 C 22,2 C 21,7 C 86 % 1001,5 hPa 0,0 l/m 0 min 0 min 51 W/m 6,4 km/h (2 Bft) 100,00 %
27.07.2019 20:02 22,9 C 22,2 C 21,7 C 86 % 1001,5 hPa 0,0 l/m 0 min 0 min 49 W/m 6,4 km/h (2 Bft) 100,00 %
27.07.2019 20:04 22,8 C 21,7 C 21,7 C 86 % 1001,5 hPa 0,0 l/m 0 min 0 min 46 W/m 9,7 km/h (2 Bft) 100,00 %
27.07.2019 20:06 22,8 C 21,7 C 21,7 C 86 % 1001,5 hPa 0,0 l/m 0 min 0 min 40 W/m 0,0 km/h (0 Bft) 100,00 %
27.07.2019 20:08 22,8 C 21,7 C 21,7 C 86 % 1001,5 hPa 0,0 l/m 0 min 0 min 35 W/m 0,0 km/h (0 Bft) 100,00 %
27.07.2019 20:10 22,8 C 21,7 C 21,7 C 85 % 1001,4 hPa 0,0 l/m 0 min 0 min 29 W/m 0,0 km/h (0 Bft) 100,00 %
27.07.2019 20:12 22,8 C 21,7 C 21,7 C 85 % 1001,5 hPa 0,0 l/m 0 min 0 min 24 W/m 0,0 km/h (0 Bft) 97,87 %
27.07.2019 20:14 22,7 C 21,7 C 21,7 C 85 % 1001,4 hPa 0,0 l/m 0 min 0 min 21 W/m 3,2 km/h (1 Bft) 97,87 %
27.07.2019 20:16 22,7 C 21,7 C 21,7 C 85 % 1001,5 hPa 0,0 l/m 0 min 0 min 18 W/m 0,0 km/h (0 Bft) 95,65 %
27.07.2019 20:18 22,7 C 21,7 C 21,7 C 85 % 1001,4 hPa 0,0 l/m 0 min 0 min 16 W/m 3,2 km/h (1 Bft) 97,87 %
27.07.2019 20:20 22,7 C 21,7 C 21,7 C 85 % 1001,4 hPa 0,0 l/m 0 min 0 min 16 W/m 6,4 km/h (2 Bft) 97,87 %
27.07.2019 20:22 22,7 C 21,7 C 21,7 C 85 % 1001,5 hPa 0,0 l/m 0 min 0 min 16 W/m 6,4 km/h (2 Bft) 97,87 %
27.07.2019 20:24 22,7 C 21,7 C 21,7 C 85 % 1001,5 hPa 0,0 l/m 0 min 0 min 15 W/m 0,0 km/h (0 Bft) 97,56 %
27.07.2019 20:26 22,7 C 21,7 C 21,7 C 86 % 1001,5 hPa 0,0 l/m 0 min 0 min 15 W/m 6,4 km/h (2 Bft) 93,62 %
27.07.2019 20:28 22,6 C 21,7 C 21,7 C 86 % 1001,5 hPa 0,0 l/m 0 min 0 min 16 W/m 3,2 km/h (1 Bft) 97,92 %
27.07.2019 20:30 22,6 C 21,1 C 21,7 C 86 % 1001,5 hPa 0,0 l/m 0 min 0 min 16 W/m 0,0 km/h (0 Bft) 97,87 %
27.07.2019 20:32 22,6 C 21,1 C 21,7 C 86 % 1001,5 hPa 0,0 l/m 0 min 0 min 16 W/m 3,2 km/h (1 Bft) 97,87 %
27.07.2019 20:34 22,6 C 21,1 C 21,7 C 86 % 1001,5 hPa 0,0 l/m 0 min 0 min 16 W/m 3,2 km/h (1 Bft) 97,87 %
27.07.2019 20:36 22,6 C 21,1 C 21,1 C 86 % 1001,5 hPa 0,0 l/m 0 min 0 min 16 W/m 3,2 km/h (1 Bft) 97,87 %
27.07.2019 20:38 22,6 C 21,1 C 21,1 C 86 % 1001,6 hPa 0,0 l/m 0 min 0 min 14 W/m 3,2 km/h (1 Bft) 98,11 %
27.07.2019 20:40 22,6 C 21,1 C 21,1 C 86 % 1001,6 hPa 0,0 l/m 0 min 0 min 14 W/m 0,0 km/h (0 Bft) 97,87 %
27.07.2019 20:42 22,5 C 21,1 C 21,1 C 86 % 1001,6 hPa 0,0 l/m 0 min 0 min 14 W/m 0,0 km/h (0 Bft) 97,87 %
27.07.2019 20:44 22,5 C 21,1 C 21,1 C 86 % 1001,7 hPa 0,0 l/m 0 min 0 min 13 W/m 6,4 km/h (2 Bft) 95,24 %
27.07.2019 20:46 22,5 C 21,1 C 21,1 C 86 % 1001,8 hPa 0,0 l/m 0 min 0 min 12 W/m 6,4 km/h (2 Bft) 97,83 %
27.07.2019 20:48 22,4 C 21,1 C 21,1 C 86 % 1001,8 hPa 0,0 l/m 0 min 0 min 12 W/m 0,0 km/h (0 Bft) 95,74 %
27.07.2019 20:50 22,4 C 21,1 C 21,1 C 86 % 1001,8 hPa 0,0 l/m 0 min 0 min 11 W/m 12,9 km/h (3 Bft) 95,74 %
27.07.2019 20:52 22,4 C 21,1 C 21,1 C 86 % 1001,8 hPa 0,0 l/m 0 min 0 min 11 W/m 0,0 km/h (0 Bft) 95,74 %
27.07.2019 20:54 22,4 C 21,1 C 21,1 C 86 % 1001,8 hPa 0,0 l/m 0 min 0 min 11 W/m 3,2 km/h (1 Bft) 93,75 %
27.07.2019 20:56 22,4 C 21,1 C 21,1 C 86 % 1001,9 hPa 0,0 l/m 0 min 0 min 11 W/m 3,2 km/h (1 Bft) 95,74 %
27.07.2019 20:58 22,4 C 21,1 C 21,1 C 86 % 1001,9 hPa 0,0 l/m 0 min 0 min 11 W/m 3,2 km/h (1 Bft) 97,83 %
27.07.2019 21:00 22,4 C 21,1 C 21,1 C 86 % 1001,9 hPa 0,0 l/m 0 min 0 min 10 W/m 9,7 km/h (2 Bft) 95,83 %
27.07.2019 21:02 22,3 C 21,1 C 21,1 C 87 % 1002,0 hPa 0,0 l/m 0 min 0 min 7 W/m 3,2 km/h (1 Bft) 95,74 %
27.07.2019 21:04 22,3 C 21,1 C 21,1 C 87 % 1002,0 hPa 0,0 l/m 0 min 0 min 6 W/m 0,0 km/h (0 Bft) 97,87 %
27.07.2019 21:06 22,3 C 21,1 C 21,1 C 87 % 1002,0 hPa 0,0 l/m 0 min 0 min 5 W/m 0,0 km/h (0 Bft) 95,83 %
27.07.2019 21:08 22,3 C 21,1 C 21,1 C 87 % 1002,1 hPa 0,0 l/m 0 min 0 min 1 W/m 3,2 km/h (1 Bft) 95,65 %
27.07.2019 21:10 22,3 C 21,1 C 21,1 C 87 % 1002,0 hPa 0,0 l/m 0 min 0 min 0 W/m 3,2 km/h (1 Bft) 97,92 %
27.07.2019 21:12 22,3 C 21,1 C 21,1 C 88 % 1002,0 hPa 0,0 l/m 0 min 0 min 0 W/m 0,0 km/h (0 Bft) 97,87 %
27.07.2019 21:14 22,3 C 21,1 C 21,1 C 88 % 1002,0 hPa 0,0 l/m 0 min 0 min 0 W/m 0,0 km/h (0 Bft) 100,00 %
27.07.2019 21:16 22,3 C 21,1 C 21,1 C 88 % 1002,0 hPa 0,0 l/m 0 min 0 min 0 W/m 6,4 km/h (2 Bft) 97,87 %
27.07.2019 21:18 22,3 C 20,6 C 21,1 C 88 % 1002,0 hPa 0,0 l/m 0 min 0 min 0 W/m 0,0 km/h (0 Bft) 97,87 %
27.07.2019 21:20 22,2 C 20,6 C 21,1 C 88 % 1002,0 hPa 0,0 l/m 0 min 0 min 0 W/m 6,4 km/h (2 Bft) 97,83 %
27.07.2019 21:22 22,2 C 20,6 C 21,1 C 88 % 1002,0 hPa 0,0 l/m 0 min 0 min 0 W/m 3,2 km/h (1 Bft) 97,87 %
27.07.2019 21:24 22,2 C 20,6 C 21,1 C 88 % 1002,0 hPa 0,0 l/m 0 min 0 min 0 W/m 0,0 km/h (0 Bft) 93,62 %
27.07.2019 21:26 22,2 C 20,6 C 20,6 C 88 % 1002,0 hPa 0,0 l/m 0 min 0 min 0 W/m 3,2 km/h (1 Bft) 95,74 %
27.07.2019 21:28 22,2 C 20,6 C 20,6 C 88 % 1002,0 hPa 0,0 l/m 0 min 0 min 0 W/m 3,2 km/h (1 Bft) 95,74 %
27.07.2019 21:30 22,1 C 20,6 C 20,6 C 88 % 1002,0 hPa 0,0 l/m 0 min 0 min 0 W/m 0,0 km/h (0 Bft) 95,74 %
27.07.2019 21:32 22,1 C 20,6 C 20,6 C 88 % 1002,0 hPa 0,0 l/m 0 min 0 min 0 W/m 3,2 km/h (1 Bft) 95,74 %
27.07.2019 21:34 22,1 C 20,6 C 20,6 C 88 % 1002,1 hPa 0,0 l/m 0 min 0 min 0 W/m 0,0 km/h (0 Bft) 97,83 %
27.07.2019 21:36 22,1 C 20,6 C 20,6 C 88 % 1002,2 hPa 0,0 l/m 0 min 0 min 0 W/m 0,0 km/h (0 Bft) 93,48 %
27.07.2019 21:38 22,1 C 20,6 C 20,6 C 88 % 1002,2 hPa 0,0 l/m 0 min 0 min 0 W/m 3,2 km/h (1 Bft) 95,74 %
27.07.2019 21:40 22,0 C 20,6 C 20,6 C 88 % 1002,2 hPa 0,0 l/m 0 min 0 min 0 W/m 3,2 km/h (1 Bft) 93,62 %
27.07.2019 21:42 22,0 C 20,6 C 20,6 C 88 % 1002,2 hPa 0,0 l/m 0 min 0 min 0 W/m 3,2 km/h (1 Bft) 95,74 %
27.07.2019 21:44 21,9 C 20,6 C 20,6 C 88 % 1002,3 hPa 0,0 l/m 0 min 0 min 0 W/m 6,4 km/h (2 Bft) 91,49 %
27.07.2019 21:46 21,9 C 20,6 C 20,6 C 88 % 1002,3 hPa 0,0 l/m 0 min 0 min 0 W/m 3,2 km/h (1 Bft) 95,74 %
27.07.2019 21:48 21,9 C 20,6 C 20,6 C 88 % 1002,2 hPa 0,0 l/m 0 min 0 min 0 W/m 0,0 km/h (0 Bft) 95,65 %
27.07.2019 21:50 21,9 C 20,6 C 20,0 C 89 % 1002,3 hPa 0,0 l/m 0 min 2 min 0 W/m 0,0 km/h (0 Bft) 93,62 %
27.07.2019 21:52 21,8 C 20,0 C 20,0 C 89 % 1002,3 hPa 0,0 l/m 0 min 2 min 0 W/m 0,0 km/h (0 Bft) 97,87 %
27.07.2019 21:54 21,8 C 19,4 C 19,4 C 89 % 1002,3 hPa 0,0 l/m 0 min 2 min 0 W/m 0,0 km/h (0 Bft) 95,74 %
27.07.2019 21:56 21,8 C 18,9 C 19,4 C 89 % 1002,3 hPa 0,2 l/m 0 min 2 min 0 W/m 3,2 km/h (1 Bft) 95,74 %
27.07.2019 21:58 21,8 C 18,9 C 19,4 C 89 % 1002,3 hPa 0,0 l/m 0 min 2 min 0 W/m 3,2 km/h (1 Bft) 95,74 %
27.07.2019 22:00 21,8 C 18,9 C 18,9 C 89 % 1002,2 hPa 0,0 l/m 0 min 2 min 0 W/m 3,2 km/h (1 Bft) 95,65 %
27.07.2019 22:02 21,8 C 18,9 C 18,9 C 90 % 1002,3 hPa 0,0 l/m 0 min 2 min 0 W/m 0,0 km/h (0 Bft) 93,62 %
27.07.2019 22:04 21,8 C 18,9 C 18,9 C 90 % 1002,3 hPa 0,0 l/m 0 min 0 min 0 W/m 0,0 km/h (0 Bft) 97,67 %
27.07.2019 22:06 21,7 C 18,9 C 18,9 C 90 % 1002,3 hPa 0,0 l/m 0 min 0 min 0 W/m 0,0 km/h (0 Bft) 97,87 %
27.07.2019 22:08 21,7 C 18,9 C 18,9 C 90 % 1002,3 hPa 0,0 l/m 0 min 0 min 0 W/m 0,0 km/h (0 Bft) 97,83 %
27.07.2019 22:10 21,7 C 18,9 C 18,9 C 90 % 1002,3 hPa 0,0 l/m 0 min 0 min 0 W/m 3,2 km/h (1 Bft) 100,00 %
27.07.2019 22:12 21,7 C 18,9 C 18,9 C 90 % 1002,3 hPa 0,0 l/m 0 min 0 min 0 W/m 3,2 km/h (1 Bft) 100,00 %
27.07.2019 22:14 21,6 C 18,9 C 18,9 C 90 % 1002,3 hPa 0,0 l/m 0 min 0 min 0 W/m 3,2 km/h (1 Bft) 100,00 %
27.07.2019 22:16 21,6 C 18,9 C 18,9 C 90 % 1002,3 hPa 0,0 l/m 0 min 0 min 0 W/m 3,2 km/h (1 Bft) 97,92 %
27.07.2019 22:18 21,6 C 18,9 C 18,9 C 91 % 1002,1 hPa 0,0 l/m 0 min 0 min 0 W/m 3,2 km/h (1 Bft) 100,00 %
27.07.2019 22:20 21,6 C 18,9 C 18,9 C 91 % 1002,2 hPa 0,0 l/m 0 min 0 min 0 W/m 0,0 km/h (0 Bft) 100,00 %
27.07.2019 22:22 21,5 C 18,9 C 18,9 C 91 % 1002,2 hPa 0,0 l/m 0 min 0 min 0 W/m 3,2 km/h (1 Bft) 97,87 %
27.07.2019 22:24 21,5 C 18,9 C 18,9 C 91 % 1002,2 hPa 0,0 l/m 0 min 0 min 0 W/m 0,0 km/h (0 Bft) 97,92 %
27.07.2019 22:26 21,4 C 18,9 C 18,9 C 91 % 1002,3 hPa 0,0 l/m 0 min 0 min 0 W/m 3,2 km/h (1 Bft) 100,00 %
27.07.2019 22:28 21,4 C 18,9 C 18,9 C 91 % 1002,4 hPa 0,0 l/m 0 min 0 min 0 W/m 0,0 km/h (0 Bft) 97,87 %
27.07.2019 22:30 21,4 C 18,9 C 18,9 C 91 % 1002,5 hPa 0,0 l/m 0 min 0 min 0 W/m 0,0 km/h (0 Bft) 100,00 %
27.07.2019 22:32 21,3 C 18,9 C 18,9 C 91 % 1002,5 hPa 0,0 l/m 0 min 0 min 0 W/m 3,2 km/h (1 Bft) 97,87 %
27.07.2019 22:34 21,3 C 18,9 C 18,9 C 91 % 1002,5 hPa 0,0 l/m 0 min 0 min 0 W/m 0,0 km/h (0 Bft) 97,83 %
27.07.2019 22:36 21,3 C 18,9 C 18,9 C 91 % 1002,4 hPa 0,0 l/m 0 min 0 min 0 W/m 0,0 km/h (0 Bft) 100,00 %
27.07.2019 22:38 21,3 C 18,9 C 18,9 C 91 % 1002,3 hPa 0,0 l/m 0 min 0 min 0 W/m 0,0 km/h (0 Bft) 100,00 %
27.07.2019 22:40 21,2 C 18,9 C 18,9 C 91 % 1002,4 hPa 0,0 l/m 0 min 0 min 0 W/m 0,0 km/h (0 Bft) 100,00 %
27.07.2019 22:42 21,2 C 18,9 C 18,9 C 91 % 1002,3 hPa 0,0 l/m 0 min 0 min 0 W/m 3,2 km/h (1 Bft) 100,00 %
27.07.2019 22:44 21,2 C 18,9 C 18,9 C 92 % 1002,3 hPa 0,0 l/m 0 min 0 min 0 W/m 0,0 km/h (0 Bft) 100,00 %
27.07.2019 22:46 21,2 C 18,9 C 18,9 C 92 % 1002,3 hPa 0,0 l/m 0 min 0 min 0 W/m 0,0 km/h (0 Bft) 100,00 %
27.07.2019 22:48 21,1 C 18,9 C 18,9 C 92 % 1002,3 hPa 0,0 l/m 0 min 0 min 0 W/m 0,0 km/h (0 Bft) 100,00 %
27.07.2019 22:50 21,1 C 18,9 C 18,9 C 92 % 1002,3 hPa 0,0 l/m 0 min 2 min 0 W/m 0,0 km/h (0 Bft) 100,00 %
27.07.2019 22:52 21,1 C 18,9 C 18,9 C 92 % 1002,3 hPa 0,0 l/m 0 min 2 min 0 W/m 0,0 km/h (0 Bft) 100,00 %
27.07.2019 22:54 21,1 C 18,9 C 18,9 C 92 % 1002,2 hPa 0,0 l/m 0 min 2 min 0 W/m 0,0 km/h (0 Bft) 100,00 %
27.07.2019 22:56 21,1 C 18,9 C 18,9 C 93 % 1002,1 hPa 0,0 l/m 0 min 2 min 0 W/m 3,2 km/h (1 Bft) 100,00 %
27.07.2019 22:58 21,1 C 18,9 C 18,9 C 93 % 1002,1 hPa 0,2 l/m 0 min 2 min 0 W/m 0,0 km/h (0 Bft) 100,00 %
27.07.2019 23:00 21,0 C 18,9 C 18,9 C 93 % 1002,1 hPa 0,0 l/m 0 min 2 min 0 W/m 0,0 km/h (0 Bft) 100,00 %
27.07.2019 23:02 21,0 C 18,9 C 18,9 C 93 % 1002,1 hPa 0,0 l/m 0 min 2 min 0 W/m 0,0 km/h (0 Bft) 100,00 %
27.07.2019 23:04 21,0 C 18,9 C 18,9 C 93 % 1002,0 hPa 0,0 l/m 0 min 2 min 0 W/m 3,2 km/h (1 Bft) 100,00 %
27.07.2019 23:06 20,9 C 18,9 C 18,9 C 93 % 1002,0 hPa 0,0 l/m 0 min 2 min 0 W/m 3,2 km/h (1 Bft) 100,00 %
27.07.2019 23:08 20,9 C 18,9 C 18,9 C 93 % 1001,9 hPa 0,0 l/m 0 min 2 min 0 W/m 3,2 km/h (1 Bft) 100,00 %
27.07.2019 23:10 20,9 C 18,9 C 18,3 C 93 % 1001,8 hPa 0,0 l/m 0 min 2 min 0 W/m 3,2 km/h (1 Bft) 97,56 %
27.07.2019 23:12 20,8 C 18,9 C 18,3 C 93 % 1001,8 hPa 0,0 l/m 0 min 2 min 0 W/m 0,0 km/h (0 Bft) 100,00 %
27.07.2019 23:14 20,8 C 18,3 C 18,3 C 93 % 1001,8 hPa 0,0 l/m 0 min 2 min 0 W/m 0,0 km/h (0 Bft) 100,00 %
27.07.2019 23:16 20,8 C 18,3 C 18,3 C 93 % 1001,8 hPa 0,0 l/m 0 min 2 min 0 W/m 3,2 km/h (1 Bft) 100,00 %
27.07.2019 23:18 20,7 C 18,3 C 18,3 C 93 % 1001,8 hPa 0,2 l/m 0 min 2 min 0 W/m 3,2 km/h (1 Bft) 100,00 %
27.07.2019 23:20 20,7 C 18,3 C 18,3 C 93 % 1001,8 hPa 0,0 l/m 0 min 2 min 0 W/m 3,2 km/h (1 Bft) 100,00 %
27.07.2019 23:22 20,6 C 18,3 C 18,3 C 94 % 1001,8 hPa 0,0 l/m 0 min 2 min 0 W/m 3,2 km/h (1 Bft) 97,92 %
27.07.2019 23:24 20,6 C 18,3 C 18,9 C 94 % 1001,9 hPa 0,0 l/m 0 min 2 min 0 W/m 0,0 km/h (0 Bft) 100,00 %
27.07.2019 23:26 20,6 C 18,3 C 18,3 C 94 % 1002,0 hPa 0,0 l/m 0 min 2 min 0 W/m 3,2 km/h (1 Bft) 100,00 %
27.07.2019 23:28 20,6 C 18,3 C 18,3 C 94 % 1002,0 hPa 0,2 l/m 0 min 2 min 0 W/m 3,2 km/h (1 Bft) 100,00 %
27.07.2019 23:30 20,5 C 18,3 C 18,3 C 94 % 1002,0 hPa 0,0 l/m 0 min 0 min 0 W/m 0,0 km/h (0 Bft) 100,00 %
27.07.2019 23:32 20,5 C 18,3 C 18,3 C 94 % 1002,0 hPa 0,0 l/m 0 min 0 min 0 W/m 3,2 km/h (1 Bft) 100,00 %
27.07.2019 23:34 20,4 C 18,3 C 18,3 C 94 % 1002,1 hPa 0,0 l/m 0 min 0 min 0 W/m 0,0 km/h (0 Bft) 100,00 %
27.07.2019 23:36 20,4 C 18,3 C 18,3 C 94 % 1002,1 hPa 0,0 l/m 0 min 0 min 0 W/m 0,0 km/h (0 Bft) 100,00 %
27.07.2019 23:38 20,4 C 18,3 C 18,3 C 94 % 1002,1 hPa 0,0 l/m 0 min 0 min 0 W/m 0,0 km/h (0 Bft) 100,00 %
27.07.2019 23:40 20,4 C 18,3 C 18,3 C 94 % 1002,1 hPa 0,0 l/m 0 min 0 min 0 W/m 0,0 km/h (0 Bft) 97,87 %
27.07.2019 23:42 20,3 C 18,3 C 18,3 C 94 % 1002,1 hPa 0,0 l/m 0 min 0 min 0 W/m 0,0 km/h (0 Bft) 97,87 %
27.07.2019 23:44 20,3 C 18,3 C 18,3 C 94 % 1002,0 hPa 0,0 l/m 0 min 0 min 0 W/m 0,0 km/h (0 Bft) 97,56 %
27.07.2019 23:46 20,3 C 18,3 C 18,3 C 94 % 1002,0 hPa 0,0 l/m 0 min 0 min 0 W/m 0,0 km/h (0 Bft) 97,67 %
27.07.2019 23:48 20,3 C 18,3 C 18,3 C 94 % 1001,9 hPa 0,0 l/m 0 min 0 min 0 W/m 0,0 km/h (0 Bft) 96,00 %
27.07.2019 23:50 20,3 C 18,3 C 18,3 C 94 % 1001,9 hPa 0,0 l/m 0 min 0 min 0 W/m 3,2 km/h (1 Bft) 97,87 %
27.07.2019 23:52 20,3 C 18,3 C 18,3 C 94 % 1001,9 hPa 0,0 l/m 0 min 0 min 0 W/m 0,0 km/h (0 Bft) 97,87 %
27.07.2019 23:54 20,3 C 18,3 C 18,3 C 94 % 1001,9 hPa 0,0 l/m 0 min 0 min 0 W/m 0,0 km/h (0 Bft) 97,87 %
27.07.2019 23:56 20,2 C 18,3 C 18,3 C 94 % 1001,8 hPa 0,0 l/m 0 min 0 min 0 W/m 3,2 km/h (1 Bft) 95,12 %
27.07.2019 23:58 20,2 C 18,3 C 18,3 C 94 % 1001,8 hPa 0,0 l/m 0 min 0 min 0 W/m 3,2 km/h (1 Bft) 96,00 %
_ Min-Zeit 23:56 23:14 23:10 12:40 19:22 - - - - 00:22 03:50
Minimum _ 20,2 C 18,3 C 18,3 C 69 % 1001,1 hPa - - - - 0,0 km/h (0 Bft) 91,30 %
_ Max-Zeit 12:40 11:42 11:14 23:22 00:00 21:56 06:08 16:14 15:04 14:34 00:02
Maximum _ 27,5 C 32,2 C 32,2 C 94 % 1005,3 hPa 0,2 l/m 4 min 2 min 870 W/m 29,0 km/h
S (5 Bft)
100,00 %
Durchschnitt _ 24,0 C 23,7 C 23,6 C 81 % 1002,9 hPa #0,8 l/m #4:51 h #1:18 h 236 W/m 6,0 km/h (2 Bft) 97,64 %
© 2019 W. Hausmann